IT9CNT Weather Reports


time (UTC)temp
C
wind
direction
speed
KPH
gust
KPH
rain 1hr
cm
rain 24hr
cm
rain mn
cm
humidity
%
barometer
mb
20260507142803 21 98 14.5 20.9 0.00 0.00 0.00 83 1006.0
20260507142703 21 102 14.5 20.9 0.00 0.00 0.00 83 1006.1
20260507142603 21 100 16.1 22.5 0.00 0.00 0.00 84 1006.1
20260507142503 21 98 16.1 22.5 0.00 0.00 0.00 83 1005.9
20260507142403 20 99 17.7 22.5 0.00 0.00 0.00 84 1005.9
20260507142306 20 99 19.3 24.1 0.00 0.00 0.00 84 1005.8
20260507142203 20 100 19.3 24.1 0.00 0.00 0.00 84 1006.0
20260507142103 20 103 19.3 24.1 0.00 0.00 0.00 83 1005.9
20260507142003 20 102 17.7 24.1 0.00 0.00 0.00 84 1005.8
20260507141903 20 96 17.7 24.1 0.00 0.00 0.00 84 1006.0
20260507141803 20 89 17.7 24.1 0.00 0.00 0.00 84 1006.0
20260507141703 20 85 17.7 24.1 0.00 0.00 0.00 84 1006.0
20260507141603 21 85 17.7 24.1 0.00 0.00 0.00 83 1006.2
20260507141503 21 90 17.7 24.1 0.00 0.00 0.00 84 1005.9
20260507141403 20 87 17.7 24.1 0.00 0.00 0.00 84 1006.0
20260507141303 20 84 17.7 24.1 0.00 0.00 0.00 84 1006.1
20260507141203 21 78 17.7 22.5 0.00 0.00 0.00 84 1006.2
20260507141103 20 74 17.7 22.5 0.00 0.00 0.00 84 1006.1
20260507141003 20 73 16.1 22.5 0.00 0.00 0.00 84 1006.0
20260507140903 20 74 16.1 22.5 0.00 0.00 0.00 84 1006.1
20260507140803 20 81 16.1 20.9 0.00 0.00 0.00 84 1006.3
20260507140703 20 77 16.1 27.4 0.00 0.00 0.00 84 1006.2
20260507140603 21 70 16.1 27.4 0.00 0.00 0.00 84 1006.1
20260507140503 21 65 16.1 27.4 0.00 0.00 0.00 84 1006.0
20260507140403 20 61 14.5 27.4 0.00 0.00 0.00 84 1006.1
20260507140303 20 60 14.5 27.4 0.00 0.00 0.00 84 1005.9
20260507140203 21 63 14.5 27.4 0.00 0.00 0.00 84 1006.1
20260507140103 21 60 14.5 27.4 0.00 0.00 0.00 84 1006.0
20260507140004 21 62 14.5 27.4 0.00 0.00 0.00 84 1006.0
20260507135903 20 67 14.5 27.4 0.00 0.00 0.00 84 1006.0
20260507135804 21 74 14.5 27.4 0.00 0.00 0.00 84 1006.2
20260507135703 20 76 14.5 27.4 0.00 0.00 0.00 84 1006.1
20260507135603 21 79 14.5 17.7 0.00 0.00 0.00 83 1006.0
20260507135503 21 82 14.5 17.7 0.00 0.00 0.00 84 1006.1
20260507135403 21 87 14.5 17.7 0.00 0.00 0.00 84 1006.2
20260507135306 21 89 14.5 17.7 0.00 0.00 0.00 84 1006.1
20260507135203 20 89 14.5 17.7 0.00 0.00 0.00 84 1006.2
20260507135103 20 95 14.5 17.7 0.00 0.00 0.00 84 1006.2
20260507135003 20 94 14.5 17.7 0.00 0.00 0.00 84 1006.0
20260507134903 20 93 14.5 17.7 0.00 0.00 0.00 84 1006.1
20260507134803 20 91 14.5 17.7 0.00 0.00 0.00 84 1006.2
20260507134703 20 94 12.9 17.7 0.00 0.00 0.00 84 1006.1
20260507134603 20 100 11.3 17.7 0.00 0.00 0.00 84 1006.3
20260507134503 20 101 12.9 17.7 0.00 0.00 0.00 84 1006.3
20260507134403 21 104 12.9 17.7 0.00 0.00 0.00 84 1006.3
20260507134303 21 104 12.9 20.9 0.00 0.00 0.00 84 1006.1
20260507134203 20 101 12.9 20.9 0.00 0.00 0.00 84 1006.3
20260507134103 20 98 12.9 20.9 0.00 0.00 0.00 84 1006.1
20260507134003 20 94 14.5 20.9 0.00 0.00 0.00 84 1006.1
20260507133903 21 89 14.5 20.9 0.00 0.00 0.00 84 1006.3
20260507133803 21 89 14.5 20.9 0.00 0.00 0.00 83 1006.1
20260507133703 21 90 16.1 20.9 0.00 0.00 0.00 84 1006.1
20260507133603 20 91 16.1 20.9 0.00 0.00 0.00 84 1006.1
20260507133503 20 94 17.7 20.9 0.00 0.00 0.00 84 1006.0
20260507133403 20 92 17.7 22.5 0.00 0.00 0.00 84 1006.2
20260507133303 20 91 16.1 22.5 0.00 0.00 0.00 84 1006.2
20260507133203 20 96 17.7 22.5 0.00 0.00 0.00 84 1006.1
20260507133103 20 97 17.7 22.5 0.00 0.00 0.00 84 1006.3
20260507133003 20 97 17.7 22.5 0.00 0.00 0.00 84 1006.1
20260507132903 21 98 17.7 22.5 0.00 0.00 0.00 84 1006.5
20260507132803 20 99 17.7 22.5 0.00 0.00 0.00 84 1006.4
20260507132703 20 93 17.7 22.5 0.00 0.00 0.00 84 1006.4
20260507132603 20 94 17.7 22.5 0.00 0.00 0.00 84 1006.2
20260507132503 20 92 17.7 22.5 0.00 0.00 0.00 84 1006.4
20260507132403 21 92 16.1 20.9 0.00 0.00 0.00 84 1006.5
20260507132307 21 87 16.1 20.9 0.00 0.00 0.00 84 1006.3
20260507132203 20 84 17.7 20.9 0.00 0.00 0.00 84 1006.2
20260507132103 21 80 17.7 22.5 0.00 0.00 0.00 84 1006.5
20260507132003 21 82 17.7 22.5 0.00 0.00 0.00 84 1006.5
20260507131903 21 84 17.7 22.5 0.00 0.00 0.00 83 1006.4
20260507131803 21 91 17.7 22.5 0.00 0.00 0.00 84 1006.5
20260507131703 20 97 17.7 22.5 0.00 0.00 0.00 84 1006.3
20260507131603 21 99 17.7 22.5 0.00 0.00 0.00 84 1006.2
20260507131503 20 97 17.7 22.5 0.00 0.00 0.00 84 1006.4
20260507131403 20 93 17.7 22.5 0.00 0.00 0.00 84 1006.2
20260507131303 20 96 17.7 22.5 0.00 0.00 0.00 84 1006.3
20260507131203 20 96 17.7 22.5 0.00 0.00 0.00 84 1006.2
20260507131103 20 99 17.7 22.5 0.00 0.00 0.00 84 1006.3
20260507131003 20 103 16.1 22.5 0.00 0.00 0.00 84 1006.2
20260507130903 20 104 17.7 20.9 0.00 0.00 0.00 84 1006.4
20260507130803 20 101 17.7 20.9 0.00 0.00 0.00 84 1006.2
20260507130703 20 102 17.7 24.1 0.00 0.00 0.00 84 1006.4
20260507130603 20 102 19.3 29.0 0.00 0.00 0.00 84 1006.4
20260507130503 20 100 20.9 29.0 0.00 0.00 0.00 84 1006.1
20260507130403 20 102 20.9 29.0 0.00 0.00 0.00 84 1006.3
20260507130303 20 103 20.9 29.0 0.00 0.00 0.00 84 1006.6
20260507130203 20 103 20.9 29.0 0.00 0.00 0.00 84 1006.3
20260507130103 20 105 20.9 29.0 0.00 0.00 0.00 84 1006.5
20260507130004 20 101 20.9 29.0 0.00 0.00 0.00 84 1006.4
20260507125903 20 102 19.3 29.0 0.00 0.00 0.00 84 1006.3
20260507125803 20 98 19.3 29.0 0.00 0.00 0.00 84 1006.3
20260507125703 20 96 19.3 29.0 0.00 0.00 0.00 84 1006.3
20260507125603 20 94 17.7 29.0 0.00 0.00 0.00 84 1006.4
20260507125503 20 95 17.7 20.9 0.00 0.00 0.00 84 1006.4
20260507125403 20 100 17.7 25.7 0.00 0.00 0.00 84 1006.3
20260507125306 20 99 17.7 25.7 0.00 0.00 0.00 84 1006.5
20260507125203 20 93 19.3 27.4 0.00 0.00 0.00 84 1006.5
20260507125103 20 90 19.3 27.4 0.00 0.00 0.00 84 1006.6
20260507125003 20 87 19.3 27.4 0.00 0.00 0.00 84 1006.4
20260507124903 20 87 19.3 27.4 0.00 0.00 0.00 84 1006.5
20260507124803 20 88 17.7 27.4 0.00 0.00 0.00 84 1006.4
20260507124703 20 89 17.7 27.4 0.00 0.00 0.00 84 1006.4
20260507124603 20 86 19.3 27.4 0.00 0.00 0.00 84 1006.7
20260507124503 20 87 19.3 27.4 0.00 0.00 0.00 84 1006.5
20260507124403 20 85 17.7 27.4 0.00 0.00 0.00 84 1006.6
20260507124303 20 83 19.3 27.4 0.00 0.00 0.00 84 1006.6
20260507124203 20 90 17.7 27.4 0.00 0.00 0.00 84 1006.6
20260507124103 20 96 17.7 24.1 0.00 0.00 0.00 84 1006.6
20260507124003 20 103 17.7 24.1 0.00 0.00 0.00 84 1006.5
20260507123903 20 105 19.3 24.1 0.00 0.00 0.00 84 1006.3
20260507123803 20 100 19.3 25.7 0.00 0.00 0.00 84 1006.4
20260507123703 20 99 20.9 25.7 0.00 0.00 0.00 84 1006.5
20260507123603 20 101 22.5 29.0 0.00 0.00 0.00 84 1006.4
20260507123503 20 103 22.5 29.0 0.00 0.00 0.00 84 1006.5
20260507123403 20 102 22.5 29.0 0.00 0.00 0.00 84 1006.6
20260507123303 20 104 20.9 29.0 0.00 0.00 0.00 84 1006.7
20260507123203 20 106 20.9 29.0 0.00 0.00 0.00 84 1006.7
20260507123103 20 107 20.9 29.0 0.00 0.00 0.00 84 1006.6
20260507123003 20 100 20.9 29.0 0.00 0.00 0.00 84 1006.5
20260507122903 20 96 20.9 29.0 0.00 0.00 0.00 84 1006.6
20260507122803 20 100 20.9 29.0 0.00 0.00 0.00 84 1006.5
20260507122705 20 95 20.9 29.0 0.00 0.00 0.00 84 1006.5
20260507122603 20 86 20.9 29.0 0.00 0.00 0.00 84 1006.4
20260507122503 20 82 19.3 25.7 0.00 0.00 0.00 84 1006.2
20260507122403 20 74 19.3 25.7 0.00 0.00 0.00 84 1006.4
20260507122306 20 66 19.3 25.7 0.00 0.00 0.00 84 1006.3
20260507122203 20 58 17.7 25.7 0.00 0.00 0.00 84 1006.3
20260507122103 20 51 17.7 25.7 0.00 0.00 0.00 84 1006.7
20260507122004 20 52 17.7 25.7 0.00 0.00 0.00 84 1006.6
20260507121903 20 54 16.1 25.7 0.00 0.00 0.00 84 1006.5
20260507121803 20 58 16.1 25.7 0.00 0.00 0.00 84 1006.8
20260507121703 20 65 16.1 25.7 0.00 0.00 0.00 84 1006.6
20260507121603 20 75 14.5 20.9 0.00 0.00 0.00 84 1006.6
20260507121503 20 76 14.5 17.7 0.00 0.00 0.00 84 1006.6
20260507121403 20 86 14.5 17.7 0.00 0.00 0.00 84 1006.6
20260507121303 20 91 14.5 17.7 0.00 0.00 0.00 84 1006.5
20260507121203 20 91 16.1 17.7 0.00 0.00 0.00 84 1006.6
20260507121103 20 93 16.1 17.7 0.00 0.00 0.00 84 1006.5
20260507121003 20 89 16.1 25.7 0.00 0.00 0.00 84 1006.8
20260507120903 20 88 17.7 25.7 0.00 0.00 0.00 84 1006.6
20260507120803 20 88 17.7 25.7 0.00 0.00 0.00 84 1006.5
20260507120703 20 92 17.7 25.7 0.00 0.00 0.00 84 1006.6
20260507120603 20 93 19.3 25.7 0.00 0.00 0.00 84 1006.6
20260507120503 20 96 19.3 25.7 0.00 0.00 0.00 84 1006.6
20260507120403 20 87 19.3 25.7 0.00 0.00 0.00 84 1006.8
20260507120303 20 76 19.3 25.7 0.00 0.00 0.00 84 1006.7
20260507120203 20 83 19.3 25.7 0.00 0.00 0.00 84 1006.8
20260507120103 20 81 19.3 25.7 0.00 0.00 0.00 84 1006.8
20260507120004 20 77 19.3 25.7 0.00 0.00 0.00 84 1006.8
20260507115903 20 75 17.7 25.7 0.00 0.00 0.00 84 1006.8
20260507115803 20 60 17.7 24.1 0.00 0.00 0.00 84 1006.7
20260507115703 20 62 17.7 22.5 0.00 0.00 0.00 84 1006.7
20260507115603 20 74 17.7 22.5 0.00 0.00 0.00 84 1006.5
20260507115503 20 71 17.7 22.5 0.00 0.00 0.00 84 1006.7
20260507115403 20 77 17.7 25.7 0.00 0.00 0.00 84 1006.4
20260507115306 20 85 17.7 25.7 0.00 0.00 0.00 84 1006.6
20260507115103 20 86 17.7 25.7 0.00 0.00 0.00 84 1006.6
20260507115003 20 91 17.7 25.7 0.00 0.00 0.00 84 1006.5
20260507114903 20 90 17.7 25.7 0.00 0.00 0.00 84 1006.7
20260507114803 20 92 17.7 25.7 0.00 0.00 0.00 84 1006.7
20260507114703 20 88 17.7 25.7 0.00 0.00 0.00 84 1006.4
20260507114603 20 85 19.3 25.7 0.00 0.00 0.00 84 1006.5
20260507114503 20 81 19.3 25.7 0.00 0.00 0.00 84 1006.5
20260507114403 20 74 20.9 25.7 0.00 0.00 0.00 84 1006.5
20260507114303 20 68 19.3 24.1 0.00 0.00 0.00 84 1006.3
20260507114203 20 69 19.3 24.1 0.00 0.00 0.00 84 1006.8
20260507114103 20 69 19.3 24.1 0.00 0.00 0.00 84 1006.6
20260507114003 20 66 19.3 24.1 0.00 0.00 0.00 84 1006.7
20260507113903 20 64 19.3 24.1 0.00 0.00 0.00 84 1006.6
20260507113803 20 62 19.3 24.1 0.00 0.00 0.00 84 1006.5
20260507113703 20 63 19.3 24.1 0.00 0.00 0.00 84 1006.7
20260507113603 20 64 19.3 24.1 0.00 0.00 0.00 84 1006.8
20260507113503 20 67 17.7 24.1 0.00 0.00 0.00 84 1006.6
20260507113403 20 69 17.7 22.5 0.00 0.00 0.00 84 1006.4
20260507113303 21 72 17.7 22.5 0.00 0.00 0.00 83 1006.5
20260507113203 20 72 17.7 22.5 0.00 0.00 0.00 84 1006.5
20260507113103 20 72 17.7 24.1 0.00 0.00 0.00 84 1006.4
20260507113004 20 79 17.7 24.1 0.00 0.00 0.00 84 1006.4
20260507112903 20 82 17.7 24.1 0.00 0.00 0.00 83 1006.7
20260507112803 21 85 17.7 25.7 0.00 0.00 0.00 83 1006.5
20260507112703 20 85 19.3 25.7 0.00 0.00 0.00 83 1006.8
20260507112603 21 85 20.9 27.4 0.00 0.00 0.00 84 1006.6
20260507112503 21 85 20.9 27.4 0.00 0.00 0.00 84 1006.5
20260507112403 21 89 20.9 27.4 0.00 0.00 0.00 83 1006.6
20260507112306 20 94 20.9 27.4 0.00 0.00 0.00 83 1006.6
20260507112203 20 95 20.9 27.4 0.00 0.00 0.00 83 1006.6
20260507112103 21 100 20.9 27.4 0.00 0.00 0.00 84 1006.8
20260507112003 21 99 20.9 29.0 0.00 0.00 0.00 83 1006.6
20260507111904 20 96 20.9 29.0 0.00 0.00 0.00 83 1006.5
20260507111803 20 95 20.9 29.0 0.00 0.00 0.00 83 1006.8
20260507111703 20 89 20.9 29.0 0.00 0.00 0.00 83 1006.7
20260507111603 21 89 20.9 33.8 0.00 0.00 0.00 83 1006.6
20260507111504 21 89 22.5 33.8 0.00 0.00 0.00 83 1006.7
20260507111403 21 87 22.5 33.8 0.00 0.00 0.00 83 1006.5
20260507111303 21 85 24.1 33.8 0.00 0.00 0.00 83 1006.6
20260507111203 21 81 24.1 33.8 0.00 0.00 0.00 83 1006.5
20260507111103 21 74 22.5 33.8 0.00 0.00 0.00 83 1006.4
20260507111003 21 76 22.5 33.8 0.00 0.00 0.00 83 1006.4
20260507110903 21 79 22.5 33.8 0.00 0.00 0.00 83 1006.4
20260507110803 21 81 24.1 33.8 0.00 0.00 0.00 83 1006.5
20260507110703 21 86 24.1 33.8 0.00 0.00 0.00 83 1006.4
20260507110603 21 86 24.1 33.8 0.00 0.00 0.00 83 1006.3
20260507110503 21 86 22.5 29.0 0.00 0.00 0.00 83 1006.3
20260507110403 21 89 22.5 29.0 0.00 0.00 0.00 83 1006.3
20260507110303 21 93 22.5 29.0 0.00 0.00 0.00 83 1006.3
20260507110203 21 98 22.5 29.0 0.00 0.00 0.00 83 1006.4
20260507110103 21 99 24.1 29.0 0.00 0.00 0.00 83 1006.4
20260507110003 20 99 22.5 29.0 0.00 0.00 0.00 83 1006.5
20260507105903 20 100 22.5 29.0 0.00 0.00 0.00 83 1006.3
20260507105803 21 104 22.5 27.4 0.00 0.00 0.00 83 1006.2
20260507105703 21 105 22.5 29.0 0.00 0.00 0.00 82 1006.4
20260507105603 21 107 24.1 29.0 0.00 0.00 0.00 83 1006.5
20260507105503 21 110 25.7 35.4 0.00 0.00 0.00 83 1006.3
20260507105403 21 108 24.1 35.4 0.00 0.00 0.00 83 1006.0
20260507105306 21 106 24.1 35.4 0.00 0.00 0.00 83 1006.4
20260507105203 21 102 24.1 35.4 0.00 0.00 0.00 83 1006.3
20260507105103 21 102 25.7 35.4 0.00 0.00 0.00 83 1006.2
20260507105003 21 101 24.1 35.4 0.00 0.00 0.00 83 1006.3
20260507104903 21 104 24.1 35.4 0.00 0.00 0.00 83 1006.3
20260507104803 21 106 24.1 35.4 0.00 0.00 0.00 83 1006.4
20260507104703 21 108 24.1 35.4 0.00 0.00 0.00 83 1006.6
20260507104603 21 106 24.1 35.4 0.00 0.00 0.00 83 1006.5
20260507104503 21 106 24.1 35.4 0.00 0.00 0.00 83 1006.4
20260507104403 21 105 25.7 35.4 0.00 0.00 0.00 83 1006.4
20260507104303 21 103 25.7 35.4 0.00 0.00 0.00 83 1006.3
20260507104203 21 102 25.7 35.4 0.00 0.00 0.00 82 1006.1
20260507104103 22 105 25.7 35.4 0.00 0.00 0.00 82 1006.2
20260507104003 21 107 25.7 35.4 0.00 0.00 0.00 82 1006.4
20260507103903 21 104 27.4 35.4 0.00 0.00 0.00 82 1006.7
20260507103803 21 104 29.0 38.6 0.00 0.00 0.00 83 1006.5
20260507103703 21 104 29.0 38.6 0.00 0.00 0.00 82 1006.8
20260507103603 21 101 29.0 38.6 0.00 0.00 0.00 82 1006.6
20260507103503 21 99 29.0 38.6 0.00 0.00 0.00 82 1006.7
20260507103403 21 96 27.4 38.6 0.00 0.00 0.00 83 1006.7
20260507103303 21 98 25.7 38.6 0.00 0.00 0.00 82 1006.8
20260507103203 21 99 25.7 38.6 0.00 0.00 0.00 82 1006.4
20260507103103 21 99 25.7 38.6 0.00 0.00 0.00 82 1006.4
20260507103003 21 98 25.7 38.6 0.00 0.00 0.00 82 1006.5
20260507102903 21 99 25.7 38.6 0.00 0.00 0.00 82 1006.6
20260507102803 21 94 25.7 38.6 0.00 0.00 0.00 82 1006.9
20260507102703 21 93 25.7 35.4 0.00 0.00 0.00 81 1006.9
20260507102603 21 95 25.7 35.4 0.00 0.00 0.00 82 1006.7
20260507102503 21 96 25.7 35.4 0.00 0.00 0.00 82 1006.7
20260507102403 21 96 27.4 35.4 0.00 0.00 0.00 82 1006.5
20260507102306 21 97 27.4 35.4 0.00 0.00 0.00 82 1006.4
20260507102203 21 96 29.0 43.5 0.00 0.00 0.00 82 1006.6
20260507102103 21 97 30.6 43.5 0.00 0.00 0.00 81 1006.4
20260507102003 21 98 30.6 43.5 0.00 0.00 0.00 82 1006.5
20260507101903 21 96 30.6 43.5 0.00 0.00 0.00 82 1006.4
20260507101803 21 99 30.6 43.5 0.00 0.00 0.00 82 1006.4
20260507101703 21 96 30.6 43.5 0.00 0.00 0.00 82 1006.5
20260507101603 21 98 30.6 43.5 0.00 0.00 0.00 82 1006.3
20260507101503 21 95 30.6 43.5 0.00 0.00 0.00 82 1006.5
20260507101403 21 98 30.6 43.5 0.00 0.00 0.00 82 1006.5
20260507101303 21 97 30.6 43.5 0.00 0.00 0.00 81 1006.4
20260507101203 21 95 29.0 40.2 0.00 0.00 0.00 81 1006.3
20260507101103 21 90 27.4 40.2 0.00 0.00 0.00 81 1006.4
20260507101003 21 90 29.0 40.2 0.00 0.00 0.00 82 1006.2
20260507100903 21 92 29.0 40.2 0.00 0.00 0.00 82 1006.3
20260507100803 21 88 27.4 35.4 0.00 0.00 0.00 81 1006.3
20260507100703 21 91 27.4 35.4 0.00 0.00 0.00 81 1006.3
20260507100603 21 94 29.0 35.4 0.00 0.00 0.00 81 1006.4
20260507100503 21 97 27.4 35.4 0.00 0.00 0.00 82 1006.4
20260507100403 21 99 27.4 35.4 0.00 0.00 0.00 82 1006.3
20260507100303 21 95 27.4 35.4 0.00 0.00 0.00 81 1006.3
20260507100203 21 98 27.4 35.4 0.00 0.00 0.00 81 1006.4
20260507100103 21 99 27.4 35.4 0.00 0.00 0.00 82 1006.2
20260507100004 21 104 29.0 35.4 0.00 0.00 0.00 82 1006.3
20260507095903 21 101 29.0 35.4 0.00 0.00 0.00 81 1006.3
20260507095803 21 105 29.0 35.4 0.00 0.00 0.00 82 1006.3
20260507095703 21 109 29.0 35.4 0.00 0.00 0.00 81 1006.2
20260507095603 21 108 27.4 33.8 0.00 0.00 0.00 81 1006.2
20260507095503 21 107 27.4 33.8 0.00 0.00 0.00 82 1006.4
20260507095403 21 101 27.4 33.8 0.00 0.00 0.00 81 1006.3
20260507095305 21 103 27.4 33.8 0.00 0.00 0.00 81 1006.5
20260507095203 20 102 27.4 33.8 0.00 0.00 0.00 82 1006.5
20260507095103 21 103 27.4 37.0 0.00 0.00 0.00 82 1006.7
20260507095003 21 103 27.4 37.0 0.00 0.00 0.00 81 1006.6
20260507094903 21 103 25.7 37.0 0.00 0.00 0.00 81 1006.6
20260507094803 21 98 27.4 37.0 0.00 0.00 0.00 81 1006.4
20260507094703 21 93 27.4 37.0 0.00 0.00 0.00 81 1006.7
20260507094603 21 95 27.4 37.0 0.00 0.00 0.00 81 1006.6
20260507094503 21 93 27.4 37.0 0.00 0.00 0.00 81 1006.5
20260507094403 21 98 27.4 37.0 0.00 0.00 0.00 82 1006.7
20260507094303 21 101 27.4 37.0 0.00 0.00 0.00 81 1006.7
20260507094203 21 107 29.0 37.0 0.00 0.00 0.00 80 1006.7
20260507094103 21 110 29.0 37.0 0.00 0.00 0.00 80 1006.7
20260507094003 21 109 29.0 37.0 0.00 0.00 0.00 80 1006.4
20260507093903 21 109 29.0 37.0 0.00 0.00 0.00 80 1006.6
20260507093803 21 113 29.0 37.0 0.00 0.00 0.00 80 1006.6
20260507093703 21 113 29.0 37.0 0.00 0.00 0.00 79 1006.4
20260507093603 21 112 29.0 37.0 0.00 0.00 0.00 80 1006.5
20260507093503 21 113 30.6 37.0 0.00 0.00 0.00 80 1006.4
20260507093403 21 109 30.6 37.0 0.00 0.00 0.00 80 1006.6
20260507093303 21 105 29.0 37.0 0.00 0.00 0.00 80 1006.7
20260507093203 21 100 27.4 37.0 0.00 0.00 0.00 80 1006.6
20260507093103 21 90 27.4 32.2 0.00 0.00 0.00 80 1006.4
20260507093003 21 90 27.4 40.2 0.00 0.00 0.00 81 1006.6
20260507092903 21 90 27.4 40.2 0.00 0.00 0.00 80 1006.6
20260507092803 21 86 27.4 40.2 0.00 0.00 0.00 81 1006.6
20260507092703 21 84 27.4 40.2 0.00 0.00 0.00 80 1006.6
20260507092603 21 83 25.7 40.2 0.00 0.00 0.00 80 1006.5
20260507092504 21 85 27.4 40.2 0.00 0.00 0.00 79 1006.5
20260507092403 21 91 27.4 40.2 0.00 0.00 0.00 80 1006.6
20260507092306 21 94 27.4 40.2 0.00 0.00 0.00 80 1006.3
20260507092203 21 94 27.4 40.2 0.00 0.00 0.00 80 1006.3
20260507092103 21 97 27.4 40.2 0.00 0.00 0.00 80 1006.3
20260507092003 21 95 27.4 40.2 0.00 0.00 0.00 80 1006.5
20260507091903 21 93 25.7 35.4 0.00 0.00 0.00 79 1006.6
20260507091803 21 97 25.7 35.4 0.00 0.00 0.00 80 1006.5
20260507091703 21 98 25.7 35.4 0.00 0.00 0.00 80 1006.5
20260507091603 21 96 25.7 35.4 0.00 0.00 0.00 79 1006.5
20260507091503 21 93 25.7 35.4 0.00 0.00 0.00 79 1006.5
20260507091403 21 92 24.1 32.2 0.00 0.00 0.00 79 1006.4
20260507091303 21 91 24.1 37.0 0.00 0.00 0.00 79 1006.5
20260507091203 21 91 24.1 37.0 0.00 0.00 0.00 79 1006.4
20260507091103 21 91 24.1 37.0 0.00 0.00 0.00 79 1006.4
20260507091003 21 97 25.7 37.0 0.00 0.00 0.00 79 1006.5
20260507090903 21 100 25.7 37.0 0.00 0.00 0.00 79 1006.3
20260507090803 21 98 24.1 37.0 0.00 0.00 0.00 80 1006.6
20260507090703 21 99 24.1 37.0 0.00 0.00 0.00 80 1006.5
20260507090604 21 105 25.7 37.0 0.00 0.00 0.00 79 1006.5
20260507090503 21 108 25.7 37.0 0.00 0.00 0.00 80 1006.4
20260507090403 21 106 25.7 37.0 0.00 0.00 0.00 80 1006.4
20260507090303 21 108 25.7 37.0 0.00 0.00 0.00 81 1006.7
20260507090203 21 112 25.7 33.8 0.00 0.00 0.00 81 1006.4
20260507090103 21 114 24.1 33.8 0.00 0.00 0.00 80 1006.4
20260507090005 21 110 24.1 33.8 0.00 0.00 0.00 81 1006.7
20260507085903 21 107 24.1 33.8 0.00 0.00 0.00 80 1006.7
20260507085803 21 113 24.1 33.8 0.00 0.00 0.00 80 1006.5
20260507085703 21 109 24.1 33.8 0.00 0.00 0.00 80 1006.5
20260507085603 21 105 22.5 33.8 0.00 0.00 0.00 81 1006.7
20260507085503 21 100 22.5 27.4 0.00 0.00 0.00 80 1006.5
20260507085403 21 103 22.5 33.8 0.00 0.00 0.00 80 1006.4
20260507085308 21 104 22.5 33.8 0.00 0.00 0.00 81 1006.4
20260507085203 21 96 22.5 33.8 0.00 0.00 0.00 80 1006.7
20260507085103 20 87 22.5 33.8 0.00 0.00 0.00 80 1006.5
20260507085003 21 86 22.5 33.8 0.00 0.00 0.00 80 1006.5
20260507084903 21 87 22.5 33.8 0.00 0.00 0.00 80 1006.4
20260507084803 21 83 22.5 33.8 0.00 0.00 0.00 80 1006.6
20260507084703 21 90 22.5 33.8 0.00 0.00 0.00 81 1006.6
20260507084603 21 88 24.1 33.8 0.00 0.00 0.00 81 1006.3
20260507084503 20 88 24.1 33.8 0.00 0.00 0.00 82 1006.3
20260507084403 20 89 24.1 33.8 0.00 0.00 0.00 82 1006.4
20260507084303 20 84 24.1 33.8 0.00 0.00 0.00 82 1006.5
20260507084203 20 85 24.1 33.8 0.00 0.00 0.00 82 1006.7
20260507084103 20 85 24.1 33.8 0.00 0.00 0.00 82 1006.5
20260507084003 20 84 24.1 33.8 0.00 0.00 0.00 82 1006.5
20260507083903 20 77 24.1 29.0 0.00 0.00 0.00 82 1006.5
20260507083803 20 79 24.1 32.2 0.00 0.00 0.00 82 1006.7
20260507083703 20 76 25.7 32.2 0.00 0.00 0.00 82 1006.6
20260507083603 20 71 25.7 32.2 0.00 0.00 0.00 82 1006.4
20260507083503 20 68 25.7 32.2 0.00 0.00 0.00 82 1006.3
20260507083403 20 68 25.7 32.2 0.00 0.00 0.00 83 1006.4
20260507083303 20 70 25.7 32.2 0.00 0.00 0.00 82 1006.6
20260507083203 20 75 25.7 32.2 0.00 0.00 0.00 82 1006.4
20260507083103 20 74 27.4 32.2 0.00 0.00 0.00 83 1006.3
20260507083003 20 74 29.0 33.8 0.00 0.00 0.00 83 1006.4
20260507082903 20 80 29.0 33.8 0.00 0.00 0.00 83 1006.5
20260507082803 20 80 29.0 33.8 0.00 0.00 0.00 82 1006.1
20260507082703 20 80 29.0 33.8 0.00 0.00 0.00 83 1006.3
20260507082603 20 86 27.4 33.8 0.00 0.00 0.00 83 1006.3
20260507082503 20 91 27.4 33.8 0.00 0.00 0.00 83 1006.2
20260507082403 20 90 27.4 33.8 0.00 0.00 0.00 83 1006.5
20260507082306 20 87 25.7 33.8 0.00 0.00 0.00 83 1006.2
20260507082203 20 85 27.4 33.8 0.00 0.00 0.00 83 1006.4
20260507082103 20 88 25.7 33.8 0.00 0.00 0.00 83 1006.2
20260507082003 20 92 24.1 33.8 0.00 0.00 0.00 83 1006.3
20260507081903 20 89 22.5 32.2 0.00 0.00 0.00 83 1006.4
20260507081803 20 88 22.5 32.2 0.00 0.00 0.00 83 1006.4
20260507081703 20 87 22.5 32.2 0.00 0.00 0.00 83 1006.3
20260507081603 19 91 22.5 32.2 0.00 0.00 0.00 83 1006.4
20260507081503 20 91 22.5 32.2 0.00 0.00 0.00 83 1006.7
20260507081403 19 92 22.5 32.2 0.00 0.00 0.00 83 1006.4
20260507081303 19 90 20.9 32.2 0.00 0.00 0.00 83 1006.6
20260507081203 20 85 20.9 32.2 0.00 0.00 0.00 83 1006.6
20260507081103 20 77 22.5 43.5 0.00 0.00 0.00 83 1006.5
20260507081003 20 79 22.5 43.5 0.00 0.00 0.00 83 1006.4
20260507080903 19 83 24.1 43.5 0.00 0.00 0.00 83 1006.4
20260507080803 19 84 24.1 43.5 0.00 0.00 0.00 84 1006.4
20260507080703 19 86 24.1 43.5 0.00 0.00 0.00 84 1006.5
20260507080603 19 77 24.1 43.5 0.00 0.00 0.00 84 1006.5
20260507080503 19 74 24.1 43.5 0.00 0.00 0.00 84 1006.4
20260507080403 19 69 22.5 43.5 0.00 0.00 0.00 84 1006.5
20260507080303 19 74 24.1 43.5 0.00 0.00 0.00 84 1006.5
20260507080203 19 76 24.1 43.5 0.00 0.00 0.00 84 1006.6
20260507080103 19 77 22.5 43.5 0.00 0.00 0.00 84 1006.5
20260507080004 19 77 22.5 27.4 0.00 0.00 0.00 84 1006.6
20260507075903 19 64 22.5 27.4 0.00 0.00 0.00 84 1006.7
20260507075803 19 62 20.9 27.4 0.00 0.00 0.00 84 1006.6
20260507075703 19 63 20.9 27.4 0.00 0.00 0.00 84 1006.5
20260507075604 19 68 20.9 27.4 0.00 0.00 0.00 83 1006.6
20260507075503 20 74 20.9 27.4 0.00 0.00 0.00 83 1006.5
20260507075403 19 77 20.9 27.4 0.00 0.00 0.00 83 1006.5
20260507075306 19 79 20.9 27.4 0.00 0.00 0.00 84 1006.7
20260507075203 20 79 19.3 27.4 0.00 0.00 0.00 83 1006.4
20260507075103 20 77 19.3 27.4 0.00 0.00 0.00 84 1006.5
20260507075003 19 78 19.3 27.4 0.00 0.00 0.00 84 1006.7
20260507074903 19 83 19.3 25.7 0.00 0.00 0.00 84 1006.6
20260507074803 19 84 17.7 25.7 0.00 0.00 0.00 84 1006.6
20260507074703 19 79 19.3 25.7 0.00 0.00 0.00 83 1006.8
20260507074603 19 78 19.3 27.4 0.00 0.00 0.00 84 1006.5
20260507074503 19 78 19.3 27.4 0.00 0.00 0.00 84 1006.7
20260507074403 19 82 19.3 27.4 0.00 0.00 0.00 84 1006.6
20260507074303 19 77 20.9 27.4 0.00 0.00 0.00 84 1006.6
20260507074203 20 79 20.9 27.4 0.00 0.00 0.00 84 1006.8
20260507074103 19 82 22.5 27.4 0.00 0.00 0.00 84 1006.8
20260507074004 19 84 22.5 27.4 0.00 0.00 0.00 83 1006.7
20260507073903 19 87 22.5 27.4 0.00 0.00 0.00 83 1006.7
20260507073808 19 87 24.1 27.4 0.00 0.00 0.00 84 1006.7
20260507073703 19 89 24.1 27.4 0.00 0.00 0.00 84 1006.8
20260507073603 19 92 22.5 27.4 0.00 0.00 0.00 84 1006.9
20260507073503 19 90 22.5 27.4 0.00 0.00 0.00 84 1006.9
20260507073403 19 85 22.5 27.4 0.00 0.00 0.00 84 1006.6
20260507073303 19 88 22.5 27.4 0.00 0.00 0.00 84 1006.9
20260507073203 19 89 22.5 27.4 0.00 0.00 0.00 84 1007.0
20260507073103 19 90 20.9 27.4 0.00 0.00 0.00 84 1006.9
20260507073003 19 87 20.9 29.0 0.00 0.00 0.00 84 1006.9
20260507072903 19 82 20.9 29.0 0.00 0.00 0.00 84 1006.7
20260507072803 19 81 20.9 29.0 0.00 0.00 0.00 84 1007.1
20260507072703 19 84 20.9 29.0 0.00 0.00 0.00 84 1007.0
20260507072603 19 82 20.9 29.0 0.00 0.00 0.00 83 1006.9
20260507072503 19 79 20.9 29.0 0.00 0.00 0.00 83 1007.1
20260507072403 19 86 20.9 29.0 0.00 0.00 0.00 83 1006.8
20260507072306 19 85 20.9 29.0 0.00 0.00 0.00 84 1006.9
20260507072203 19 79 20.9 29.0 0.00 0.00 0.00 84 1006.8
20260507072103 19 75 20.9 29.0 0.00 0.00 0.00 83 1006.7
20260507072003 18 75 20.9 29.0 0.00 0.00 0.00 83 1006.7
20260507071903 18 78 20.9 27.4 0.00 0.00 0.00 84 1007.0
20260507071803 18 74 20.9 27.4 0.00 0.00 0.00 83 1006.9
20260507071703 18 72 20.9 27.4 0.00 0.00 0.00 83 1006.8
20260507071603 19 74 20.9 27.4 0.00 0.00 0.00 83 1006.8
20260507071503 19 74 22.5 27.4 0.00 0.00 0.00 83 1006.8
20260507071403 19 71 22.5 29.0 0.00 0.00 0.00 83 1007.1
20260507071303 19 73 24.1 32.2 0.00 0.00 0.00 83 1006.8
20260507071203 19 76 24.1 32.2 0.00 0.00 0.00 83 1006.8
20260507071103 19 80 24.1 32.2 0.00 0.00 0.00 83 1006.8
20260507071003 19 77 24.1 32.2 0.00 0.00 0.00 83 1006.7
20260507070903 18 73 24.1 37.0 0.00 0.00 0.00 83 1006.7
20260507070803 18 70 24.1 37.0 0.00 0.00 0.00 84 1006.6
20260507070703 18 70 25.7 37.0 0.00 0.00 0.00 83 1006.6
20260507070603 18 70 24.1 37.0 0.00 0.00 0.00 83 1006.3
20260507070503 19 71 24.1 37.0 0.00 0.00 0.00 83 1006.5
20260507070403 18 71 24.1 37.0 0.00 0.00 0.00 83 1006.4
20260507070303 19 61 24.1 37.0 0.00 0.00 0.00 83 1006.4
20260507070203 19 60 24.1 37.0 0.00 0.00 0.00 83 1006.4
20260507070103 19 62 24.1 37.0 0.00 0.00 0.00 83 1006.4
20260507070008 19 66 24.1 37.0 0.00 0.00 0.00 83 1006.3
20260507065903 19 73 24.1 37.0 0.00 0.00 0.00 83 1006.3
20260507065803 19 77 22.5 35.4 0.00 0.00 0.00 83 1006.4
20260507065703 19 77 22.5 35.4 0.00 0.00 0.00 82 1006.5
20260507065603 18 78 22.5 35.4 0.00 0.00 0.00 83 1006.3
20260507065503 18 79 22.5 35.4 0.00 0.00 0.00 83 1006.3
20260507065403 18 84 22.5 35.4 0.00 0.00 0.00 83 1006.4
20260507065306 18 90 22.5 35.4 0.00 0.00 0.00 83 1006.4
20260507065203 18 95 22.5 27.4 0.00 0.00 0.00 83 1006.4
20260507065103 18 96 22.5 27.4 0.00 0.00 0.00 83 1006.5
20260507065003 18 97 20.9 27.4 0.00 0.00 0.00 83 1006.5
20260507064903 18 94 20.9 27.4 0.00 0.00 0.00 83 1006.0
20260507064803 18 96 20.9 27.4 0.00 0.00 0.00 83 1006.4
20260507064703 18 97 20.9 27.4 0.00 0.00 0.00 83 1006.3
20260507064603 18 92 19.3 27.4 0.00 0.00 0.00 83 1006.3
20260507064503 18 86 19.3 27.4 0.00 0.00 0.00 83 1006.4
20260507064403 18 84 19.3 27.4 0.00 0.00 0.00 83 1006.3
20260507064303 18 80 19.3 27.4 0.00 0.00 0.00 84 1006.3
20260507064203 18 81 19.3 27.4 0.00 0.00 0.00 83 1006.4
20260507064104 18 79 19.3 27.4 0.00 0.00 0.00 83 1006.4
20260507064003 18 75 19.3 27.4 0.00 0.00 0.00 83 1006.4
20260507063903 18 82 17.7 27.4 0.00 0.00 0.00 83 1006.3
20260507063803 18 75 17.7 27.4 0.00 0.00 0.00 83 1006.3
20260507063703 18 72 19.3 27.4 0.00 0.00 0.00 83 1006.3
20260507063603 18 67 19.3 27.4 0.00 0.00 0.00 83 1006.6
20260507063503 18 62 20.9 27.4 0.00 0.00 0.00 83 1006.3
20260507063403 18 56 20.9 27.4 0.00 0.00 0.00 84 1006.3
20260507063303 18 52 20.9 27.4 0.00 0.00 0.00 84 1006.6
20260507063203 18 46 20.9 27.4 0.00 0.00 0.00 84 1006.5
20260507063103 18 44 20.9 27.4 0.00 0.00 0.00 83 1006.4
20260507063003 18 49 20.9 27.4 0.00 0.00 0.00 83 1006.3
20260507062903 18 50 20.9 27.4 0.00 0.00 0.00 84 1006.3
20260507062803 18 50 20.9 27.4 0.00 0.00 0.00 84 1006.0
20260507062703 18 52 20.9 27.4 0.00 0.00 0.00 84 1006.3
20260507062603 18 54 20.9 27.4 0.00 0.00 0.00 84 1006.1
20260507062503 18 58 20.9 27.4 0.00 0.00 0.00 84 1006.2
20260507062403 18 57 19.3 27.4 0.00 0.00 0.00 83 1006.3
20260507062306 18 52 20.9 27.4 0.00 0.00 0.00 83 1006.2
20260507062203 18 57 20.9 27.4 0.00 0.00 0.00 84 1006.4
20260507062103 18 59 20.9 29.0 0.00 0.00 0.00 84 1006.3
20260507062003 18 60 20.9 29.0 0.00 0.00 0.00 84 1006.3
20260507061903 18 54 22.5 29.0 0.00 0.00 0.00 84 1006.1
20260507061803 17 53 22.5 29.0 0.00 0.00 0.00 84 1006.2
20260507061703 18 54 22.5 29.0 0.00 0.00 0.00 84 1006.1
20260507061603 17 61 22.5 29.0 0.00 0.00 0.00 84 1006.3
20260507061503 17 59 22.5 29.0 0.00 0.00 0.00 84 1006.3
20260507061403 17 62 22.5 29.0 0.00 0.00 0.00 84 1006.2
20260507061303 17 65 24.1 37.0 0.00 0.00 0.00 83 1006.0
20260507061203 18 68 24.1 37.0 0.00 0.00 0.00 83 1006.3
20260507061103 18 68 24.1 37.0 0.00 0.00 0.00 83 1006.1
20260507061003 17 68 24.1 37.0 0.00 0.00 0.00 83 1006.2
20260507060903 17 69 24.1 37.0 0.00 0.00 0.00 84 1006.1
20260507060803 17 72 24.1 37.0 0.00 0.00 0.00 84 1006.3
20260507060703 17 70 24.1 37.0 0.00 0.00 0.00 84 1006.2
20260507060603 17 67 24.1 37.0 0.00 0.00 0.00 84 1005.9
20260507060503 17 67 24.1 37.0 0.00 0.00 0.00 84 1005.9
20260507060403 17 70 24.1 37.0 0.00 0.00 0.00 83 1006.0
20260507060303 17 74 24.1 37.0 0.00 0.00 0.00 83 1006.1
20260507060203 17 69 22.5 27.4 0.00 0.00 0.00 83 1006.3
20260507060003 17 64 20.9 25.7 0.00 0.00 0.00 84 1006.0
20260507055903 17 61 20.9 25.7 0.00 0.00 0.00 84 1005.8
20260507055803 17 61 20.9 25.7 0.00 0.00 0.00 84 1006.0
20260507055703 17 63 20.9 25.7 0.00 0.00 0.00 84 1006.0
20260507055603 17 68 20.9 32.2 0.00 0.00 0.00 84 1005.9
20260507055503 17 71 20.9 32.2 0.00 0.00 0.00 84 1006.1
20260507055403 17 70 20.9 33.8 0.00 0.00 0.00 84 1006.0
20260507055305 17 69 20.9 33.8 0.00 0.00 0.00 84 1006.0
20260507055203 17 74 22.5 33.8 0.00 0.00 0.00 84 1005.9
20260507055103 17 71 22.5 33.8 0.00 0.00 0.00 84 1005.8
20260507055004 17 74 20.9 33.8 0.00 0.00 0.00 84 1006.2
20260507054903 17 78 20.9 33.8 0.00 0.00 0.00 84 1005.9
20260507054803 17 76 22.5 33.8 0.00 0.00 0.00 84 1005.9
20260507054703 17 70 24.1 33.8 0.00 0.00 0.00 84 1005.9
20260507054603 17 72 22.5 33.8 0.00 0.00 0.00 84 1005.9
20260507054503 17 71 22.5 33.8 0.00 0.00 0.00 84 1005.9
20260507054403 17 71 24.1 38.6 0.00 0.00 0.00 84 1005.9
20260507054303 17 76 24.1 38.6 0.00 0.00 0.00 84 1005.8
20260507054203 17 70 25.7 38.6 0.00 0.00 0.00 84 1005.8
20260507054103 17 70 25.7 38.6 0.00 0.00 0.00 84 1005.8
20260507054003 17 68 27.4 38.6 0.00 0.00 0.00 84 1005.8
20260507053903 17 64 29.0 38.6 0.00 0.00 0.00 84 1005.8
20260507053803 17 65 29.0 38.6 0.00 0.00 0.00 84 1005.9
20260507053703 17 69 27.4 38.6 0.00 0.00 0.00 84 1005.7
20260507053603 17 66 29.0 38.6 0.00 0.00 0.00 84 1005.7
20260507053503 17 64 29.0 38.6 0.00 0.00 0.00 84 1005.7
20260507053403 17 60 29.0 38.6 0.00 0.00 0.00 84 1005.8
20260507053204 17 58 29.0 33.8 0.00 0.00 0.00 84 1005.7
20260507053103 17 61 27.4 33.8 0.00 0.00 0.00 84 1005.7
20260507053004 16 60 27.4 33.8 0.00 0.00 0.00 84 1005.6
20260507052903 16 60 27.4 33.8 0.00 0.00 0.00 84 1005.8
20260507052803 17 59 27.4 32.2 0.00 0.00 0.00 84 1005.6
20260507052703 17 56 27.4 32.2 0.00 0.00 0.00 84 1005.5
20260507052603 16 55 25.7 32.2 0.00 0.00 0.00 84 1005.5
20260507052503 16 54 25.7 32.2 0.00 0.00 0.00 84 1005.6
20260507052403 16 57 25.7 32.2 0.00 0.00 0.00 84 1005.6
20260507052306 16 54 24.1 32.2 0.00 0.00 0.00 84 1005.6
20260507052203 16 54 24.1 32.2 0.00 0.00 0.00 84 1005.7
20260507052103 16 55 24.1 32.2 0.00 0.00 0.00 84 1005.8
20260507052003 16 52 24.1 32.2 0.00 0.00 0.00 84 1005.6
20260507051903 16 54 24.1 32.2 0.00 0.00 0.00 84 1006.0
20260507051803 17 58 24.1 32.2 0.00 0.00 0.00 83 1005.7
20260507051703 17 60 24.1 32.2 0.00 0.00 0.00 83 1005.7
20260507051603 17 57 24.1 32.2 0.00 0.00 0.00 83 1005.6
20260507051503 17 58 25.7 37.0 0.00 0.00 0.00 84 1006.0
20260507051303 17 61 27.4 37.0 0.00 0.00 0.00 83 1005.8
20260507051203 16 60 25.7 37.0 0.00 0.00 0.00 84 1005.7
20260507051103 16 56 27.4 37.0 0.00 0.00 0.00 84 1005.6
20260507051003 16 56 27.4 37.0 0.00 0.00 0.00 84 1005.8
20260507050903 16 56 29.0 37.0 0.00 0.00 0.00 84 1005.6
20260507050803 17 55 29.0 37.0 0.00 0.00 0.00 83 1005.7
20260507050703 16 58 29.0 37.0 0.00 0.00 0.00 83 1005.6
20260507050603 16 58 30.6 37.0 0.00 0.00 0.00 84 1005.6
20260507050503 16 55 30.6 37.0 0.00 0.00 0.00 83 1005.5
20260507050403 17 56 29.0 35.4 0.00 0.00 0.00 82 1005.6
20260507050303 16 52 27.4 33.8 0.00 0.00 0.00 83 1005.5
20260507050203 16 51 27.4 33.8 0.00 0.00 0.00 84 1005.4
20260507050103 16 50 27.4 33.8 0.00 0.00 0.00 84 1005.4
20260507050004 16 48 25.7 33.8 0.00 0.00 0.00 83 1005.4
20260507045903 16 50 25.7 35.4 0.00 0.00 0.00 83 1005.4
20260507045803 16 50 25.7 35.4 0.00 0.00 0.00 84 1005.3
20260507045703 16 48 25.7 35.4 0.00 0.00 0.00 84 1005.2
20260507045603 16 43 25.7 35.4 0.00 0.00 0.00 83 1005.2
20260507045503 16 46 25.7 35.4 0.00 0.00 0.00 83 1005.2
20260507045403 16 46 25.7 35.4 0.00 0.00 0.00 84 1005.4
20260507045306 16 50 27.4 35.4 0.00 0.00 0.00 84 1005.4
20260507045203 16 59 27.4 35.4 0.00 0.00 0.00 84 1005.4
20260507045103 16 65 27.4 35.4 0.00 0.00 0.00 84 1005.4
20260507045003 16 70 27.4 35.4 0.00 0.00 0.00 84 1005.2
20260507044908 16 66 27.4 35.4 0.00 0.00 0.00 84 1005.4
20260507044803 16 66 27.4 35.4 0.00 0.00 0.00 84 1005.0
20260507044703 16 68 27.4 35.4 0.00 0.00 0.00 83 1005.2
20260507044603 16 71 25.7 35.4 0.00 0.00 0.00 83 1005.3
20260507044503 16 75 25.7 35.4 0.00 0.00 0.00 83 1005.3
20260507044403 16 81 24.1 35.4 0.00 0.00 0.00 83 1005.4
20260507044303 16 73 24.1 35.4 0.00 0.00 0.00 83 1005.4
20260507044203 16 67 24.1 35.4 0.00 0.00 0.00 83 1005.3
20260507044103 16 65 24.1 35.4 0.00 0.00 0.00 83 1005.3
20260507044003 16 62 24.1 33.8 0.00 0.00 0.00 83 1005.5
20260507043903 16 67 24.1 33.8 0.00 0.00 0.00 83 1005.5
20260507043803 16 68 24.1 33.8 0.00 0.00 0.00 83 1005.5
20260507043703 16 66 24.1 33.8 0.00 0.00 0.00 83 1005.5
20260507043603 16 64 22.5 33.8 0.00 0.00 0.00 83 1005.4
20260507043503 16 68 24.1 33.8 0.00 0.00 0.00 83 1005.5
20260507043403 16 62 24.1 33.8 0.00 0.00 0.00 83 1005.2
20260507043303 16 61 25.7 33.8 0.00 0.00 0.00 83 1005.2
20260507043203 16 63 25.7 33.8 0.00 0.00 0.00 83 1005.4
20260507043103 16 62 25.7 33.8 0.00 0.00 0.00 83 1005.4
20260507043003 16 60 24.1 33.8 0.00 0.00 0.00 83 1005.6
20260507042903 16 57 24.1 33.8 0.00 0.00 0.00 83 1005.4
20260507042803 16 55 24.1 33.8 0.00 0.00 0.00 83 1005.4
20260507042703 16 51 27.4 49.9 0.00 0.00 0.00 83 1005.4
20260507042603 16 50 29.0 49.9 0.00 0.00 0.00 83 1005.0
20260507042503 16 48 29.0 49.9 0.00 0.00 0.00 83 1005.6
20260507042403 16 45 30.6 49.9 0.00 0.00 0.00 83 1005.6
20260507042306 16 43 32.2 49.9 0.00 0.00 0.00 83 1005.5
20260507042203 16 39 33.8 49.9 0.00 0.00 0.00 83 1005.3
20260507042103 16 37 33.8 49.9 0.00 0.00 0.00 83 1005.3
20260507042003 16 40 33.8 49.9 0.00 0.00 0.00 83 1005.4
20260507041903 16 42 33.8 49.9 0.00 0.00 0.00 83 1005.4
20260507041803 16 43 33.8 49.9 0.00 0.00 0.00 83 1005.1
20260507041703 16 42 32.2 49.9 0.00 0.00 0.00 83 1005.3
20260507041603 16 41 32.2 46.7 0.00 0.00 0.00 83 1005.3
20260507041403 16 41 29.0 46.7 0.00 0.00 0.00 82 1005.1
20260507041303 16 42 27.4 40.2 0.00 0.00 0.00 83 1005.2
20260507041203 16 43 25.7 35.4 0.00 0.00 0.00 83 1005.1
20260507041103 16 45 27.4 35.4 0.00 0.00 0.00 83 1005.2
20260507041003 16 42 27.4 35.4 0.00 0.00 0.00 83 1005.3
20260507040903 16 42 27.4 35.4 0.00 0.00 0.00 83 1005.4
20260507040803 16 43 27.4 35.4 0.00 0.00 0.00 83 1005.6
20260507040703 16 44 27.4 35.4 0.00 0.00 0.00 83 1005.3
20260507040603 16 51 27.4 35.4 0.00 0.00 0.00 83 1005.4
20260507040503 16 54 27.4 35.4 0.00 0.00 0.00 83 1005.2
20260507040403 16 55 27.4 33.8 0.00 0.00 0.00 83 1005.5
20260507040303 16 55 27.4 33.8 0.00 0.00 0.00 83 1005.5
20260507040203 16 53 27.4 35.4 0.00 0.00 0.00 83 1005.4
20260507040103 16 50 27.4 35.4 0.00 0.00 0.00 83 1005.5
20260507040004 16 53 27.4 38.6 0.00 0.00 0.00 83 1005.6
20260507035903 16 63 29.0 38.6 0.00 0.00 0.00 83 1005.5
20260507035803 16 59 29.0 38.6 0.00 0.00 0.00 83 1005.5
20260507035703 16 59 29.0 38.6 0.00 0.00 0.00 83 1005.3
20260507035603 16 53 30.6 38.6 0.00 0.00 0.00 83 1005.5
20260507035503 16 43 29.0 38.6 0.00 0.00 0.00 84 1005.8
20260507035403 16 48 27.4 38.6 0.00 0.00 0.00 83 1005.7
20260507035306 16 48 27.4 38.6 0.00 0.00 0.00 83 1005.6
20260507035203 16 52 25.7 38.6 0.00 0.00 0.00 83 1005.7
20260507035103 16 54 25.7 38.6 0.00 0.00 0.00 83 1005.5
20260507035003 16 48 24.1 38.6 0.00 0.00 0.00 83 1005.6
20260507034903 16 38 22.5 38.6 0.00 0.00 0.00 83 1005.5
20260507034803 16 39 22.5 32.2 0.00 0.00 0.00 83 1005.7
20260507034703 16 38 20.9 32.2 0.00 0.00 0.00 83 1005.4
20260507034603 16 46 22.5 35.4 0.00 0.00 0.00 83 1005.9
20260507034503 16 52 22.5 35.4 0.00 0.00 0.00 83 1006.0
20260507034404 16 54 24.1 35.4 0.00 0.00 0.00 83 1005.7
20260507034303 16 56 24.1 35.4 0.00 0.00 0.00 83 1005.4
20260507034203 16 53 24.1 35.4 0.00 0.00 0.00 83 1005.6
20260507034103 16 52 24.1 35.4 0.00 0.00 0.00 83 1005.7
20260507034003 16 51 25.7 35.4 0.00 0.00 0.00 83 1005.7
20260507033903 16 54 25.7 35.4 0.00 0.00 0.00 83 1005.6
20260507033803 16 53 25.7 35.4 0.00 0.00 0.00 83 1005.6
20260507033703 16 54 25.7 35.4 0.00 0.00 0.00 83 1005.7
20260507033603 16 55 25.7 35.4 0.00 0.00 0.00 83 1005.5
20260507033503 16 57 25.7 35.4 0.00 0.00 0.00 83 1005.4
20260507033403 16 54 24.1 35.4 0.00 0.00 0.00 83 1005.5
20260507033303 16 53 24.1 35.4 0.00 0.00 0.00 83 1005.6
20260507033203 16 55 25.7 35.4 0.00 0.00 0.00 83 1005.5
20260507033103 16 63 24.1 35.4 0.00 0.00 0.00 83 1005.6
20260507033003 16 65 24.1 35.4 0.00 0.00 0.00 83 1005.6
20260507032803 16 65 25.7 35.4 0.00 0.00 0.00 84 1005.6
20260507032703 16 63 25.7 35.4 0.00 0.00 0.00 84 1005.5
20260507032603 16 58 25.7 35.4 0.00 0.00 0.00 84 1005.4
20260507032504 16 55 25.7 35.4 0.00 0.00 0.00 84 1005.5
20260507032403 16 51 25.7 35.4 0.00 0.00 0.00 83 1005.7
20260507032305 16 49 25.7 35.4 0.00 0.00 0.00 83 1005.4
20260507032203 16 46 25.7 35.4 0.00 0.00 0.00 84 1005.6
20260507032103 16 45 25.7 35.4 0.00 0.00 0.00 84 1005.4
20260507032003 16 46 25.7 35.4 0.00 0.00 0.00 83 1005.4
20260507031903 16 41 24.1 35.4 0.00 0.00 0.00 83 1005.7
20260507031803 16 47 24.1 35.4 0.00 0.00 0.00 83 1005.7
20260507031703 16 50 24.1 32.2 0.00 0.00 0.00 83 1005.5
20260507031603 16 53 24.1 32.2 0.00 0.00 0.00 83 1005.5
20260507031503 16 55 24.1 32.2 0.00 0.00 0.00 83 1005.8
20260507031403 16 51 24.1 29.0 0.00 0.00 0.00 83 1005.9
20260507031303 16 53 24.1 29.0 0.00 0.00 0.00 83 1005.9
20260507031203 16 57 25.7 29.0 0.00 0.00 0.00 83 1005.9
20260507031103 16 60 25.7 29.0 0.00 0.00 0.00 83 1005.9
20260507031003 16 62 25.7 29.0 0.00 0.00 0.00 83 1005.9
20260507030903 16 65 24.1 29.0 0.00 0.00 0.00 83 1006.0
20260507030803 15 62 22.5 29.0 0.00 0.00 0.00 83 1006.0
20260507030703 16 55 22.5 29.0 0.00 0.00 0.00 84 1006.2
20260507030603 16 52 20.9 29.0 0.00 0.00 0.00 83 1006.0
20260507030503 16 51 20.9 29.0 0.00 0.00 0.00 83 1006.3
20260507030403 16 52 20.9 29.0 0.00 0.00 0.00 83 1006.2
20260507030303 16 52 19.3 29.0 0.00 0.00 0.00 83 1006.4
20260507030203 16 50 17.7 29.0 0.00 0.00 0.00 83 1006.3
20260507030004 15 44 17.7 27.4 0.00 0.00 0.00 84 1006.4
20260507025903 15 40 17.7 27.4 0.00 0.00 0.00 84 1006.5
20260507025803 15 40 17.7 27.4 0.00 0.00 0.00 84 1006.3
20260507025703 16 43 17.7 27.4 0.00 0.00 0.00 84 1006.5
20260507025603 16 50 17.7 27.4 0.00 0.00 0.00 84 1006.3
20260507025503 16 53 17.7 27.4 0.00 0.00 0.00 84 1006.6
20260507025403 16 57 17.7 25.7 0.00 0.00 0.00 84 1006.5
20260507025306 16 60 19.3 25.7 0.00 0.00 0.00 84 1006.4
20260507025203 16 63 19.3 25.7 0.00 0.00 0.00 84 1006.6
20260507025103 16 65 19.3 25.7 0.00 0.00 0.00 84 1006.8
20260507025003 16 61 19.3 25.7 0.00 0.00 0.00 84 1006.5
20260507024903 16 59 20.9 25.7 0.00 0.00 0.00 84 1006.5
20260507024803 16 61 20.9 25.7 0.00 0.00 0.00 84 1006.7
20260507024703 16 66 20.9 29.0 0.00 0.00 0.00 84 1006.6
20260507024603 16 59 22.5 29.0 0.00 0.00 0.00 84 1006.5
20260507024503 16 59 22.5 29.0 0.00 0.00 0.00 84 1006.9
20260507024403 16 56 22.5 29.0 0.00 0.00 0.00 83 1006.7
20260507024303 16 51 20.9 29.0 0.00 0.00 0.00 83 1006.8
20260507024203 16 47 20.9 29.0 0.00 0.00 0.00 83 1006.9
20260507024103 16 48 20.9 29.0 0.00 0.00 0.00 83 1006.9
20260507024003 16 49 20.9 29.0 0.00 0.00 0.00 83 1006.8
20260507023903 16 51 20.9 29.0 0.00 0.00 0.00 83 1006.9
20260507023803 16 54 20.9 29.0 0.00 0.00 0.00 83 1007.1
20260507023703 16 48 20.9 29.0 0.00 0.00 0.00 83 1007.0
20260507023603 16 52 20.9 25.7 0.00 0.00 0.00 83 1007.1
20260507023503 16 51 20.9 25.7 0.00 0.00 0.00 83 1007.0
20260507023403 16 54 20.9 25.7 0.00 0.00 0.00 83 1007.0
20260507023303 16 56 20.9 25.7 0.00 0.00 0.00 83 1007.1
20260507023203 16 59 19.3 25.7 0.00 0.00 0.00 83 1006.9
20260507023103 16 52 20.9 29.0 0.00 0.00 0.00 83 1007.3
20260507023003 16 54 20.9 29.0 0.00 0.00 0.00 83 1007.0
20260507022903 16 57 20.9 29.0 0.00 0.00 0.00 83 1007.1
20260507022803 16 56 20.9 29.0 0.00 0.00 0.00 83 1007.1
20260507022703 16 53 20.9 29.0 0.00 0.00 0.00 83 1007.0
20260507022603 16 50 20.9 29.0 0.00 0.00 0.00 83 1007.1
20260507022503 16 49 20.9 29.0 0.00 0.00 0.00 83 1007.1
20260507022403 16 47 22.5 29.0 0.00 0.00 0.00 83 1007.1
20260507022306 16 50 22.5 29.0 0.00 0.00 0.00 83 1007.2
20260507022203 16 52 22.5 29.0 0.00 0.00 0.00 83 1007.2
20260507022103 16 57 22.5 29.0 0.00 0.00 0.00 83 1007.1
20260507022003 16 58 22.5 27.4 0.00 0.00 0.00 83 1007.1
20260507021903 16 52 22.5 27.4 0.00 0.00 0.00 83 1007.1
20260507021803 16 50 22.5 27.4 0.00 0.00 0.00 83 1007.1
20260507021703 16 54 22.5 27.4 0.00 0.00 0.00 83 1007.2
20260507021603 16 56 22.5 27.4 0.00 0.00 0.00 83 1007.2
20260507021503 16 55 22.5 27.4 0.00 0.00 0.00 83 1007.2
20260507021404 16 61 22.5 27.4 0.00 0.00 0.00 83 1007.3
20260507021303 16 59 20.9 25.7 0.00 0.00 0.00 83 1007.3
20260507021203 16 56 20.9 25.7 0.00 0.00 0.00 83 1007.0
20260507021103 16 52 20.9 25.7 0.00 0.00 0.00 83 1007.1
20260507021003 16 48 20.9 25.7 0.00 0.00 0.00 83 1007.2
20260507020903 16 48 20.9 25.7 0.00 0.00 0.00 83 1007.2
20260507020803 16 48 19.3 24.1 0.00 0.00 0.00 83 1007.3
20260507020703 16 52 20.9 24.1 0.00 0.00 0.00 83 1007.1
20260507020603 16 51 20.9 24.1 0.00 0.00 0.00 83 1007.6
20260507020503 16 52 20.9 24.1 0.00 0.00 0.00 83 1007.2
20260507020403 16 48 20.9 25.7 0.00 0.00 0.00 83 1007.5
20260507020303 16 47 20.9 25.7 0.00 0.00 0.00 83 1007.6
20260507020203 16 46 20.9 25.7 0.00 0.00 0.00 83 1007.5
20260507020103 16 46 20.9 29.0 0.00 0.00 0.00 83 1007.5
20260507020004 16 46 20.9 29.0 0.00 0.00 0.00 83 1007.5
20260507015903 16 47 22.5 29.0 0.00 0.00 0.00 83 1007.5
20260507015803 16 49 22.5 29.0 0.00 0.00 0.00 83 1007.3
20260507015703 16 46 20.9 29.0 0.00 0.00 0.00 83 1007.2
20260507015603 16 44 20.9 29.0 0.00 0.00 0.00 83 1007.4
20260507015503 16 43 22.5 29.0 0.00 0.00 0.00 83 1007.5
20260507015403 16 41 22.5 29.0 0.00 0.00 0.00 83 1007.5
20260507015306 16 40 22.5 29.0 0.00 0.00 0.00 83 1007.7
20260507015203 16 39 22.5 29.0 0.00 0.00 0.00 83 1007.8
20260507015104 16 36 22.5 29.0 0.00 0.00 0.00 83 1007.8
20260507015004 16 37 22.5 29.0 0.00 0.00 0.00 83 1007.8
20260507014903 16 39 20.9 25.7 0.00 0.00 0.00 83 1007.6
20260507014803 16 39 20.9 24.1 0.00 0.00 0.00 83 1007.6
20260507014703 16 39 22.5 24.1 0.00 0.00 0.00 83 1007.7
20260507014603 16 39 22.5 24.1 0.00 0.00 0.00 83 1007.5
20260507014503 16 39 22.5 27.4 0.00 0.00 0.00 83 1007.8
20260507014403 16 42 22.5 27.4 0.00 0.00 0.00 83 1007.6
20260507014303 16 42 22.5 27.4 0.00 0.00 0.00 83 1007.9
20260507014203 16 45 22.5 27.4 0.00 0.00 0.00 83 1007.7
20260507014103 16 46 22.5 27.4 0.00 0.00 0.00 83 1007.5
20260507014003 16 47 22.5 27.4 0.00 0.00 0.00 83 1007.7
20260507013903 16 45 22.5 27.4 0.00 0.00 0.00 83 1007.6
20260507013803 16 42 22.5 29.0 0.00 0.00 0.00 83 1007.5
20260507013703 16 41 22.5 29.0 0.00 0.00 0.00 83 1007.3
20260507013603 16 40 22.5 29.0 0.00 0.00 0.00 83 1007.5
20260507013503 16 40 22.5 29.0 0.00 0.00 0.00 83 1007.4
20260507013403 16 37 22.5 29.0 0.00 0.00 0.00 83 1007.5
20260507013303 16 35 22.5 29.0 0.00 0.00 0.00 83 1007.6
20260507013203 16 34 24.1 29.0 0.00 0.00 0.00 83 1007.4
20260507013103 16 36 24.1 29.0 0.00 0.00 0.00 83 1007.5
20260507013003 16 36 24.1 29.0 0.00 0.00 0.00 83 1007.7
20260507012903 16 40 24.1 35.4 0.00 0.00 0.00 83 1007.5
20260507012803 16 46 24.1 35.4 0.00 0.00 0.00 83 1007.4
20260507012703 16 48 24.1 35.4 0.00 0.00 0.00 83 1007.4
20260507012603 16 50 24.1 35.4 0.00 0.00 0.00 83 1007.4
20260507012503 16 51 24.1 35.4 0.00 0.00 0.00 83 1007.6
20260507012403 16 51 24.1 35.4 0.00 0.00 0.00 83 1007.5
20260507012306 16 55 24.1 35.4 0.00 0.00 0.00 83 1007.6
20260507012203 16 63 24.1 35.4 0.00 0.00 0.00 83 1007.5
20260507012103 16 64 24.1 35.4 0.00 0.00 0.00 83 1007.4
20260507012003 16 62 24.1 35.4 0.00 0.00 0.00 83 1007.4
20260507011903 16 54 24.1 35.4 0.00 0.00 0.00 83 1007.2
20260507011803 16 47 24.1 29.0 0.00 0.00 0.00 83 1007.3
20260507011703 16 44 24.1 29.0 0.00 0.00 0.00 83 1007.3
20260507011603 16 42 22.5 29.0 0.00 0.00 0.00 83 1007.4
20260507011503 16 43 22.5 29.0 0.00 0.00 0.00 83 1007.3
20260507011403 16 52 22.5 29.0 0.00 0.00 0.00 83 1007.6
20260507011303 16 53 22.5 29.0 0.00 0.00 0.00 83 1007.7
20260507011203 16 48 22.5 25.7 0.00 0.00 0.00 83 1007.7
20260507011103 16 44 20.9 25.7 0.00 0.00 0.00 83 1007.5
20260507011003 16 47 20.9 25.7 0.00 0.00 0.00 83 1007.4
20260507010903 16 48 20.9 25.7 0.00 0.00 0.00 83 1007.7
20260507010803 16 49 20.9 29.0 0.00 0.00 0.00 83 1007.5
20260507010703 16 55 22.5 29.0 0.00 0.00 0.00 83 1007.6
20260507010603 16 54 22.5 32.2 0.00 0.00 0.00 83 1007.5
20260507010503 16 53 22.5 32.2 0.00 0.00 0.00 83 1007.5
20260507010403 16 48 22.5 32.2 0.00 0.00 0.00 83 1007.6
20260507010303 16 41 22.5 32.2 0.00 0.00 0.00 83 1007.6
20260507010203 16 39 22.5 32.2 0.00 0.00 0.00 83 1007.7
20260507010003 16 41 24.1 32.2 0.00 0.00 0.00 83 1007.7
20260507005903 16 40 22.5 32.2 0.00 0.00 0.00 83 1007.5
20260507005803 16 45 22.5 32.2 0.00 0.00 0.00 83 1007.6
20260507005703 16 45 20.9 32.2 0.00 0.00 0.00 83 1007.8
20260507005603 16 49 19.3 25.7 0.00 0.00 0.00 83 1007.7
20260507005503 16 50 19.3 25.7 0.00 0.00 0.00 83 1007.6
20260507005403 16 54 19.3 25.7 0.00 0.00 0.00 83 1007.8
20260507005305 16 58 19.3 25.7 0.00 0.00 0.00 83 1007.7
20260507005203 16 60 17.7 25.7 0.00 0.00 0.00 83 1007.9
20260507005103 16 63 17.7 25.7 0.00 0.00 0.00 83 1007.8
20260507005003 16 64 17.7 25.7 0.00 0.00 0.00 83 1007.7
20260507004903 16 65 17.7 25.7 0.00 0.00 0.00 83 1007.9
20260507004804 16 61 19.3 25.7 0.00 0.00 0.00 83 1008.0
20260507004703 16 58 19.3 25.7 0.00 0.00 0.00 83 1008.0
20260507004603 16 53 19.3 29.0 0.00 0.00 0.00 83 1007.9
20260507004503 16 45 19.3 29.0 0.00 0.00 0.00 83 1008.1
20260507004403 16 35 19.3 29.0 0.00 0.00 0.00 84 1008.0
20260507004303 16 36 19.3 29.0 0.00 0.00 0.00 84 1007.9
20260507004203 16 36 20.9 29.0 0.00 0.00 0.00 84 1007.9
20260507004103 16 37 20.9 29.0 0.00 0.00 0.00 84 1008.1
20260507004003 16 33 19.3 29.0 0.00 0.00 0.00 84 1007.8
20260507003903 16 40 20.9 29.0 0.00 0.00 0.00 84 1007.8
20260507003803 16 43 19.3 29.0 0.00 0.00 0.00 83 1007.9
20260507003703 16 46 19.3 29.0 0.00 0.00 0.00 83 1008.0
20260507003603 16 51 20.9 29.0 0.00 0.00 0.00 83 1007.7
20260507003503 16 62 19.3 27.4 0.00 0.00 0.00 83 1008.0
20260507003403 16 65 19.3 27.4 0.00 0.00 0.00 83 1008.0
20260507003303 16 65 19.3 27.4 0.00 0.00 0.00 83 1008.0
20260507003203 16 68 19.3 27.4 0.00 0.00 0.00 84 1007.9
20260507003103 16 64 19.3 27.4 0.00 0.00 0.00 84 1007.9
20260507003003 16 63 20.9 27.4 0.00 0.00 0.00 84 1007.8
20260507002903 16 61 19.3 27.4 0.00 0.00 0.00 84 1007.8
20260507002803 16 65 19.3 25.7 0.00 0.00 0.00 84 1007.8
20260507002703 16 62 19.3 25.7 0.00 0.00 0.00 84 1007.8
20260507002603 16 59 19.3 27.4 0.00 0.00 0.00 84 1007.6
20260507002503 16 59 20.9 27.4 0.00 0.00 0.00 84 1007.8
20260507002403 16 61 19.3 27.4 0.00 0.00 0.00 84 1007.4
20260507002306 16 59 19.3 27.4 0.00 0.00 0.00 84 1007.8
20260507002203 16 68 20.9 27.4 0.00 0.00 0.00 84 1007.6
20260507002103 16 71 20.9 27.4 0.00 0.00 0.00 83 1007.7
20260507002003 16 70 20.9 27.4 0.00 0.00 0.00 84 1007.8
20260507001903 16 70 22.5 32.2 0.00 0.00 0.00 84 1008.0
20260507001803 16 67 24.1 32.2 0.00 0.00 0.00 84 1007.7
20260507001703 16 67 24.1 32.2 0.00 0.00 0.00 84 1007.8
20260507001603 16 76 24.1 32.2 0.00 0.00 0.00 84 1007.8
20260507001503 16 81 25.7 32.2 0.00 0.00 0.00 84 1007.8
20260507001403 16 85 25.7 32.2 0.00 0.00 0.00 84 1007.7
20260507001303 16 91 27.4 32.2 0.00 0.00 0.00 84 1007.7
20260507001203 16 94 27.4 32.2 0.00 0.00 0.00 84 1007.7
20260507001103 16 93 27.4 32.2 0.00 0.00 0.00 84 1008.0
20260507001003 16 99 29.0 32.2 0.00 0.00 0.00 84 1008.0
20260507000903 16 101 27.4 32.2 0.00 0.00 0.00 84 1007.8
20260507000803 16 104 27.4 27.4 0.00 0.00 0.00 84 1007.9
20260507000703 16 107 25.7 27.4 0.00 0.00 0.00 84 1007.8
20260507000603 16 105 25.7 33.8 0.00 0.00 0.00 84 1007.8
20260507000503 16 101 25.7 33.8 0.00 0.00 0.00 84 1007.6
20260507000405 16 91 25.7 33.8 0.00 0.00 0.00 84 1007.9
20260507000303 16 79 25.7 33.8 0.00 0.00 0.00 84 1007.6
20260507000205 16 69 25.7 33.8 0.00 0.00 0.00 84 1007.8
20260507000004 16 53 24.1 33.8 0.00 0.00 0.00 84 1007.9
20260506235903 16 49 24.1 33.8 0.00 0.00 0.00 84 1007.9
20260506235803 16 50 25.7 33.8 0.00 0.00 0.00 84 1007.9
20260506235703 16 54 25.7 33.8 0.00 0.00 0.00 84 1007.8
20260506235603 16 61 25.7 33.8 0.00 0.00 0.00 84 1007.9
20260506235503 16 61 24.1 29.0 0.00 0.00 0.00 84 1007.9
20260506235403 16 64 24.1 29.0 0.00 0.00 0.00 84 1008.0
20260506235306 16 65 24.1 29.0 0.00 0.00 0.00 84 1008.1
20260506235203 16 64 25.7 29.0 0.00 0.00 0.00 84 1007.9
20260506235103 16 60 24.1 29.0 0.00 0.00 0.00 84 1008.2
20260506235003 16 58 24.1 29.0 0.00 0.00 0.00 84 1008.0
20260506234903 16 56 24.1 29.0 0.00 0.00 0.00 84 1007.9
20260506234803 16 53 22.5 29.0 0.00 0.00 0.00 84 1008.1
20260506234703 16 50 22.5 29.0 0.00 0.00 0.00 84 1007.9
20260506234603 16 46 20.9 29.0 0.00 0.00 0.00 84 1008.1
20260506234503 16 45 20.9 29.0 0.00 0.00 0.00 84 1008.2
20260506234403 16 40 20.9 29.0 0.00 0.00 0.00 84 1008.2
20260506234303 16 41 19.3 27.4 0.00 0.00 0.00 84 1008.0
20260506234203 16 48 17.7 25.7 0.00 0.00 0.00 84 1008.1
20260506234103 16 52 17.7 25.7 0.00 0.00 0.00 84 1008.0
20260506234003 16 55 17.7 25.7 0.00 0.00 0.00 84 1008.3
20260506233903 16 59 17.7 25.7 0.00 0.00 0.00 84 1008.0
20260506233803 16 61 17.7 25.7 0.00 0.00 0.00 84 1008.1
20260506233703 16 62 19.3 25.7 0.00 0.00 0.00 84 1008.1
20260506233603 16 65 19.3 25.7 0.00 0.00 0.00 84 1008.2
20260506233503 16 60 19.3 25.7 0.00 0.00 0.00 84 1008.2
20260506233403 16 60 20.9 25.7 0.00 0.00 0.00 84 1008.1
20260506233303 16 58 20.9 25.7 0.00 0.00 0.00 84 1008.2
20260506233203 16 56 22.5 25.7 0.00 0.00 0.00 84 1008.0
20260506233103 16 51 22.5 25.7 0.00 0.00 0.00 84 1008.4
20260506233003 16 51 20.9 25.7 0.00 0.00 0.00 84 1008.2
20260506232903 16 51 22.5 25.7 0.00 0.00 0.00 84 1008.1
20260506232803 16 48 22.5 25.7 0.00 0.00 0.00 84 1008.3
20260506232703 16 46 22.5 25.7 0.00 0.00 0.00 84 1008.2
20260506232603 16 45 22.5 25.7 0.00 0.00 0.00 84 1008.3
20260506232503 16 44 22.5 29.0 0.00 0.00 0.00 84 1008.2
20260506232403 16 42 22.5 29.0 0.00 0.00 0.00 84 1008.6
20260506232306 16 40 22.5 29.0 0.00 0.00 0.00 84 1008.3
20260506232203 16 36 22.5 29.0 0.00 0.00 0.00 84 1008.2
20260506232103 16 37 22.5 29.0 0.00 0.00 0.00 84 1008.4
20260506232003 16 38 24.1 29.0 0.00 0.00 0.00 83 1008.3
20260506231903 16 35 24.1 29.0 0.00 0.00 0.00 83 1008.4
20260506231803 16 38 24.1 29.0 0.00 0.00 0.00 83 1008.4
20260506231703 16 37 24.1 29.0 0.00 0.00 0.00 83 1008.3
20260506231603 16 32 24.1 29.0 0.00 0.00 0.00 83 1008.3
20260506231504 16 32 24.1 29.0 0.00 0.00 0.00 83 1008.4
20260506231403 16 32 22.5 29.0 0.00 0.00 0.00 83 1008.5
20260506231303 17 36 22.5 29.0 0.00 0.00 0.00 83 1008.4
20260506231003 17 42 22.5 29.0 0.00 0.00 0.00 83 1008.6
20260506230903 17 46 22.5 29.0 0.00 0.00 0.00 83 1008.7
20260506230803 17 45 20.9 24.1 0.00 0.00 0.00 83 1008.8
20260506230703 17 39 20.9 24.1 0.00 0.00 0.00 83 1008.8
20260506230603 17 36 20.9 29.0 0.00 0.00 0.00 83 1008.8
20260506230503 17 38 22.5 29.0 0.00 0.00 0.00 82 1008.8
20260506230403 17 37 22.5 29.0 0.00 0.00 0.00 82 1008.9
20260506230303 17 37 22.5 29.0 0.00 0.00 0.00 82 1008.9
20260506230203 17 42 24.1 29.0 0.00 0.00 0.00 82 1009.1
20260506230103 17 41 24.1 29.0 0.00 0.00 0.00 82 1009.2
20260506230003 17 43 24.1 29.0 0.00 0.00 0.00 82 1009.2
20260506225903 17 42 24.1 29.0 0.00 0.00 0.00 82 1009.0
20260506225803 17 44 24.1 29.0 0.00 0.00 0.00 82 1009.0
20260506225703 17 43 24.1 29.0 0.00 0.00 0.00 82 1009.1
20260506225603 17 49 24.1 27.4 0.00 0.00 0.00 82 1009.1
20260506225503 17 50 22.5 27.4 0.00 0.00 0.00 82 1008.9
20260506225403 17 50 22.5 27.4 0.00 0.00 0.00 82 1009.0
20260506225305 17 46 22.5 27.4 0.00 0.00 0.00 82 1009.2
20260506225203 17 41 22.5 27.4 0.00 0.00 0.00 82 1008.9
20260506225103 17 37 22.5 27.4 0.00 0.00 0.00 82 1009.1
20260506225003 17 33 22.5 27.4 0.00 0.00 0.00 82 1009.3
20260506224903 17 35 22.5 27.4 0.00 0.00 0.00 82 1009.2
20260506224803 17 31 22.5 27.4 0.00 0.00 0.00 82 1009.1
20260506224703 17 36 22.5 27.4 0.00 0.00 0.00 82 1009.1
20260506224603 17 31 22.5 27.4 0.00 0.00 0.00 82 1009.2
20260506224503 17 33 22.5 27.4 0.00 0.00 0.00 82 1009.1
20260506224403 17 34 22.5 27.4 0.00 0.00 0.00 82 1009.3
20260506224303 17 42 22.5 27.4 0.00 0.00 0.00 82 1009.3
20260506224203 17 41 22.5 27.4 0.00 0.00 0.00 82 1009.3
20260506224103 17 46 22.5 27.4 0.00 0.00 0.00 82 1009.3
20260506224003 17 49 22.5 27.4 0.00 0.00 0.00 82 1009.3
20260506223903 17 45 22.5 27.4 0.00 0.00 0.00 82 1009.2
20260506223803 17 50 22.5 27.4 0.00 0.00 0.00 82 1009.4
20260506223703 17 49 20.9 27.4 0.00 0.00 0.00 82 1009.6
20260506223603 17 51 20.9 27.4 0.00 0.00 0.00 82 1009.4
20260506223503 17 48 20.9 27.4 0.00 0.00 0.00 82 1009.4
20260506223403 17 54 20.9 27.4 0.00 0.00 0.00 81 1009.5
20260506223303 17 51 20.9 27.4 0.00 0.00 0.00 81 1009.5
20260506223203 17 50 20.9 27.4 0.00 0.00 0.00 81 1009.2
20260506223103 17 50 19.3 25.7 0.00 0.00 0.00 81 1009.4
20260506223003 17 50 19.3 25.7 0.00 0.00 0.00 81 1009.3
20260506222903 17 49 19.3 25.7 0.00 0.00 0.00 81 1009.5
20260506222803 17 43 19.3 25.7 0.00 0.00 0.00 81 1009.2
20260506222703 17 40 19.3 25.7 0.00 0.00 0.00 81 1009.5
20260506222603 17 44 17.7 22.5 0.00 0.00 0.00 81 1009.5
20260506222503 17 40 19.3 24.1 0.00 0.00 0.00 81 1009.5
20260506222403 17 35 19.3 24.1 0.00 0.00 0.00 81 1009.6
20260506222305 17 33 19.3 24.1 0.00 0.00 0.00 81 1009.7
20260506222203 17 34 17.7 24.1 0.00 0.00 0.00 81 1009.6
20260506222103 17 34 17.7 24.1 0.00 0.00 0.00 81 1009.4
20260506222003 17 34 17.7 24.1 0.00 0.00 0.00 81 1009.7
20260506221903 17 37 17.7 24.1 0.00 0.00 0.00 82 1009.8
20260506221803 17 38 17.7 24.1 0.00 0.00 0.00 82 1009.6
20260506221703 17 39 17.7 24.1 0.00 0.00 0.00 81 1009.6
20260506221603 17 40 17.7 24.1 0.00 0.00 0.00 82 1009.6
20260506221504 17 48 16.1 22.5 0.00 0.00 0.00 82 1009.2
20260506221403 17 42 17.7 24.1 0.00 0.00 0.00 82 1009.7
20260506221303 17 43 17.7 24.1 0.00 0.00 0.00 82 1009.6
20260506221203 17 44 17.7 24.1 0.00 0.00 0.00 82 1009.6
20260506221103 17 47 17.7 24.1 0.00 0.00 0.00 82 1009.5
20260506221003 17 51 17.7 24.1 0.00 0.00 0.00 82 1009.7
20260506220903 17 48 17.7 24.1 0.00 0.00 0.00 82 1009.5
20260506220803 17 47 19.3 24.1 0.00 0.00 0.00 82 1009.4
20260506220703 17 49 19.3 24.1 0.00 0.00 0.00 82 1009.4
20260506220603 17 46 19.3 24.1 0.00 0.00 0.00 82 1009.4
20260506220503 17 42 19.3 24.1 0.00 0.00 0.00 82 1009.3
20260506220403 17 49 19.3 24.1 0.00 0.00 0.00 82 1009.4
20260506220304 17 51 17.7 24.1 0.00 0.00 0.00 82 1009.3
20260506220203 17 50 17.7 24.1 0.00 0.00 0.00 82 1009.4
20260506220027 17 44 17.7 24.1 0.00 0.00 0.00 82 1009.2
20260506215903 17 41 17.7 24.1 0.00 0.00 0.00 82 1009.3
20260506215803 17 47 17.7 24.1 0.00 0.00 0.00 82 1009.5
20260506215703 17 43 17.7 22.5 0.00 0.00 0.00 82 1009.2
20260506215603 17 43 17.7 22.5 0.00 0.00 0.00 82 1009.3
20260506215503 17 42 17.7 22.5 0.00 0.00 0.00 82 1009.6
20260506215403 17 42 19.3 27.4 0.00 0.00 0.00 82 1009.4
20260506215306 17 39 19.3 27.4 0.00 0.00 0.00 82 1009.2
20260506215203 17 40 19.3 27.4 0.00 0.00 0.00 82 1009.4
20260506215103 17 36 19.3 27.4 0.00 0.00 0.00 82 1009.3
20260506215003 17 37 19.3 27.4 0.00 0.00 0.00 82 1009.2
20260506214903 17 40 19.3 27.4 0.00 0.00 0.00 82 1009.4
20260506214803 17 34 17.7 27.4 0.00 0.00 0.00 82 1009.5
20260506214703 17 40 17.7 27.4 0.00 0.00 0.00 82 1009.5
20260506214603 17 40 16.1 27.4 0.00 0.00 0.00 82 1009.4
20260506214503 17 40 16.1 27.4 0.00 0.00 0.00 82 1009.4
20260506214403 17 33 14.5 22.5 0.00 0.00 0.00 82 1009.5
20260506214303 17 38 14.5 17.7 0.00 0.00 0.00 83 1009.5
20260506214203 17 39 14.5 17.7 0.00 0.00 0.00 83 1009.5
20260506214103 17 46 14.5 17.7 0.00 0.00 0.00 83 1009.5
20260506214003 17 46 14.5 17.7 0.00 0.00 0.00 83 1009.6
20260506213903 17 40 14.5 20.9 0.00 0.00 0.00 83 1009.6
20260506213803 17 37 14.5 20.9 0.00 0.00 0.00 83 1009.6
20260506213708 17 38 16.1 24.1 0.00 0.00 0.00 83 1009.4
20260506213603 17 35 16.1 24.1 0.00 0.00 0.00 83 1009.5
20260506213503 17 32 17.7 24.1 0.00 0.00 0.00 83 1009.4
20260506213403 17 39 17.7 24.1 0.00 0.00 0.00 83 1009.5
20260506213303 17 37 17.7 24.1 0.00 0.00 0.00 83 1009.4
20260506213203 17 36 17.7 24.1 0.00 0.00 0.00 83 1009.5
20260506213103 17 37 17.7 24.1 0.00 0.00 0.00 83 1009.6
20260506213004 17 38 17.7 24.1 0.00 0.00 0.00 83 1009.4
20260506212903 17 39 17.7 24.1 0.00 0.00 0.00 83 1009.5
20260506212803 17 43 17.7 24.1 0.00 0.00 0.00 83 1009.6
20260506212703 17 40 17.7 24.1 0.00 0.00 0.00 83 1009.5
20260506212603 17 40 17.7 22.5 0.00 0.00 0.00 83 1009.6
20260506212503 17 42 17.7 22.5 0.00 0.00 0.00 83 1009.5
20260506212403 17 43 17.7 22.5 0.00 0.00 0.00 83 1009.6
20260506212306 17 45 17.7 22.5 0.00 0.00 0.00 83 1009.4
20260506212203 17 47 17.7 22.5 0.00 0.00 0.00 83 1009.5
20260506212103 17 47 17.7 22.5 0.00 0.00 0.00 83 1009.3
20260506212003 17 48 17.7 22.5 0.00 0.00 0.00 83 1009.3
20260506211903 17 47 17.7 22.5 0.00 0.00 0.00 83 1009.3
20260506211803 17 46 17.7 22.5 0.00 0.00 0.00 83 1009.4
20260506211703 17 44 17.7 22.5 0.00 0.00 0.00 83 1009.4
20260506211603 17 45 17.7 22.5 0.00 0.00 0.00 83 1009.3
20260506211503 17 47 17.7 22.5 0.00 0.00 0.00 83 1009.4
20260506211403 17 47 17.7 22.5 0.00 0.00 0.00 83 1009.2
20260506211303 17 44 16.1 20.9 0.00 0.00 0.00 83 1009.4
20260506211203 17 41 17.7 29.0 0.00 0.00 0.00 83 1009.4
20260506211103 17 39 19.3 29.0 0.00 0.00 0.00 83 1009.2
20260506211003 17 39 19.3 29.0 0.00 0.00 0.00 83 1009.3
20260506210903 17 39 19.3 29.0 0.00 0.00 0.00 83 1009.1
20260506210803 17 42 19.3 29.0 0.00 0.00 0.00 83 1009.2
20260506210703 17 43 19.3 29.0 0.00 0.00 0.00 83 1009.2
20260506210603 17 42 19.3 29.0 0.00 0.00 0.00 83 1009.2
20260506210503 17 42 19.3 29.0 0.00 0.00 0.00 83 1009.3
20260506210403 17 44 19.3 29.0 0.00 0.00 0.00 83 1009.1
20260506210303 17 45 19.3 29.0 0.00 0.00 0.00 83 1009.1
20260506210203 17 45 19.3 29.0 0.00 0.00 0.00 84 1009.2
20260506210103 17 44 19.3 29.0 0.00 0.00 0.00 84 1009.1
20260506210004 17 45 17.7 25.7 0.00 0.00 0.00 83 1009.3
20260506205903 17 46 17.7 25.7 0.00 0.00 0.00 83 1009.2
20260506205803 17 44 17.7 25.7 0.00 0.00 0.00 83 1009.2
20260506205703 17 41 17.7 25.7 0.00 0.00 0.00 83 1008.8
20260506205603 17 41 17.7 25.7 0.00 0.00 0.00 83 1009.1
20260506205503 17 42 17.7 25.7 0.00 0.00 0.00 83 1009.3
20260506205403 17 43 16.1 25.7 0.00 0.00 0.00 83 1009.2
20260506205305 17 43 17.7 25.7 0.00 0.00 0.00 83 1009.2
20260506205203 17 44 17.7 25.7 0.00 0.00 0.00 83 1009.2
20260506205103 17 44 17.7 27.4 0.00 0.00 0.00 83 1009.2
20260506205003 17 43 17.7 27.4 0.00 0.00 0.00 83 1009.2
20260506204903 17 43 19.3 27.4 0.00 0.00 0.00 83 1009.2
20260506204803 17 47 19.3 27.4 0.00 0.00 0.00 83 1009.2
20260506204703 17 49 20.9 27.4 0.00 0.00 0.00 83 1009.4
20260506204603 17 50 19.3 27.4 0.00 0.00 0.00 83 1009.6
20260506204503 17 50 20.9 27.4 0.00 0.00 0.00 83 1009.5
20260506204403 17 46 20.9 27.4 0.00 0.00 0.00 83 1009.4
20260506204303 17 45 20.9 27.4 0.00 0.00 0.00 83 1009.2
20260506204203 17 44 20.9 27.4 0.00 0.00 0.00 83 1009.1
20260506204103 17 50 19.3 27.4 0.00 0.00 0.00 83 1009.3
20260506204003 17 54 19.3 27.4 0.00 0.00 0.00 83 1009.4
20260506203903 17 58 19.3 27.4 0.00 0.00 0.00 83 1009.4
20260506203803 17 55 19.3 32.2 0.00 0.00 0.00 83 1009.6
20260506203703 17 56 20.9 32.2 0.00 0.00 0.00 83 1009.3
20260506203603 17 57 20.9 32.2 0.00 0.00 0.00 83 1009.4
20260506203503 17 58 20.9 32.2 0.00 0.00 0.00 83 1009.3
20260506203403 17 65 20.9 32.2 0.00 0.00 0.00 83 1009.2
20260506203303 17 69 20.9 32.2 0.00 0.00 0.00 83 1009.2
20260506203203 17 72 20.9 32.2 0.00 0.00 0.00 83 1009.4
20260506203103 17 68 20.9 32.2 0.00 0.00 0.00 83 1009.3
20260506203003 17 63 20.9 32.2 0.00 0.00 0.00 83 1009.3
20260506202903 17 63 19.3 32.2 0.00 0.00 0.00 83 1009.0
20260506202803 17 62 17.7 25.7 0.00 0.00 0.00 83 1009.3
20260506202703 17 61 17.7 25.7 0.00 0.00 0.00 83 1009.3
20260506202603 17 56 17.7 25.7 0.00 0.00 0.00 83 1009.1
20260506202503 18 54 16.1 24.1 0.00 0.00 0.00 83 1009.1
20260506202403 18 43 17.7 27.4 0.00 0.00 0.00 83 1009.0
20260506202306 18 38 17.7 27.4 0.00 0.00 0.00 83 1009.1
20260506202203 18 35 17.7 27.4 0.00 0.00 0.00 83 1009.1
20260506202103 18 35 17.7 27.4 0.00 0.00 0.00 83 1009.1
20260506202003 18 39 17.7 27.4 0.00 0.00 0.00 82 1009.1
20260506201903 18 35 17.7 27.4 0.00 0.00 0.00 82 1009.2
20260506201803 18 33 17.7 27.4 0.00 0.00 0.00 82 1009.2
20260506201603 18 36 16.1 27.4 0.00 0.00 0.00 82 1009.1
20260506201503 18 40 17.7 27.4 0.00 0.00 0.00 82 1009.1
20260506201403 18 42 17.7 27.4 0.00 0.00 0.00 82 1009.3
20260506201303 18 43 17.7 24.1 0.00 0.00 0.00 82 1009.2
20260506201203 18 44 17.7 24.1 0.00 0.00 0.00 82 1009.2
20260506201103 18 43 17.7 24.1 0.00 0.00 0.00 82 1009.3
20260506201003 18 43 17.7 24.1 0.00 0.00 0.00 82 1009.4
20260506200903 18 46 17.7 24.1 0.00 0.00 0.00 82 1009.4
20260506200803 18 49 17.7 24.1 0.00 0.00 0.00 82 1009.3
20260506200703 18 47 17.7 24.1 0.00 0.00 0.00 82 1009.4
20260506200603 18 48 17.7 24.1 0.00 0.00 0.00 82 1009.2
20260506200503 18 47 16.1 24.1 0.00 0.00 0.00 82 1009.2
20260506200403 18 47 16.1 20.9 0.00 0.00 0.00 82 1009.1
20260506200303 18 51 16.1 20.9 0.00 0.00 0.00 82 1009.2
20260506200203 18 56 16.1 20.9 0.00 0.00 0.00 82 1009.1
20260506200103 18 57 16.1 20.9 0.00 0.00 0.00 82 1009.2
20260506200004 18 56 16.1 20.9 0.00 0.00 0.00 82 1009.2
20260506195903 18 55 16.1 20.9 0.00 0.00 0.00 82 1009.3
20260506195803 18 54 16.1 20.9 0.00 0.00 0.00 82 1009.1
20260506195703 18 55 16.1 22.5 0.00 0.00 0.00 82 1009.1
20260506195603 18 53 16.1 22.5 0.00 0.00 0.00 83 1009.1
20260506195503 18 51 17.7 22.5 0.00 0.00 0.00 83 1009.1
20260506195403 18 48 17.7 22.5 0.00 0.00 0.00 83 1009.1
20260506195306 18 44 17.7 22.5 0.00 0.00 0.00 83 1009.1
20260506195203 18 38 17.7 22.5 0.00 0.00 0.00 83 1009.3
20260506195103 18 35 16.1 22.5 0.00 0.00 0.00 83 1009.2
20260506195003 18 34 17.7 22.5 0.00 0.00 0.00 83 1009.1
20260506194903 18 34 17.7 22.5 0.00 0.00 0.00 83 1008.9
20260506194803 18 34 17.7 22.5 0.00 0.00 0.00 83 1009.1
20260506194703 18 33 16.1 20.9 0.00 0.00 0.00 83 1008.9
20260506194603 18 31 16.1 20.9 0.00 0.00 0.00 83 1008.8
20260506194503 18 30 16.1 20.9 0.00 0.00 0.00 83 1008.8
20260506194403 18 34 16.1 20.9 0.00 0.00 0.00 83 1008.8
20260506194303 18 34 14.5 20.9 0.00 0.00 0.00 83 1008.6
20260506194203 18 36 14.5 20.9 0.00 0.00 0.00 83 1008.6
20260506194103 18 33 14.5 20.9 0.00 0.00 0.00 83 1008.6
20260506194003 18 36 14.5 20.9 0.00 0.00 0.00 83 1008.6
20260506193903 18 35 12.9 20.9 0.00 0.00 0.00 83 1008.4
20260506193803 18 41 14.5 20.9 0.00 0.00 0.00 83 1008.5
20260506193703 18 43 12.9 17.7 0.00 0.00 0.00 83 1008.7
20260506193603 18 49 12.9 17.7 0.00 0.00 0.00 83 1008.6
20260506193503 18 50 12.9 17.7 0.00 0.00 0.00 83 1008.6
20260506193403 18 52 12.9 17.7 0.00 0.00 0.00 83 1008.6
20260506193303 18 55 12.9 17.7 0.00 0.00 0.00 83 1008.7
20260506193203 18 55 12.9 17.7 0.00 0.00 0.00 83 1008.6
20260506193103 18 60 11.3 17.7 0.00 0.00 0.00 83 1008.6
20260506193003 18 61 12.9 17.7 0.00 0.00 0.00 83 1008.7
20260506192903 18 57 12.9 17.7 0.00 0.00 0.00 83 1008.7
20260506192803 18 52 12.9 17.7 0.00 0.00 0.00 83 1008.6
20260506192703 18 51 12.9 17.7 0.00 0.00 0.00 83 1008.6
20260506192603 19 52 12.9 17.7 0.00 0.00 0.00 83 1008.8
20260506192503 19 55 11.3 17.7 0.00 0.00 0.00 83 1008.7
20260506192403 19 55 11.3 17.7 0.00 0.00 0.00 83 1008.8
20260506192305 19 58 11.3 17.7 0.00 0.00 0.00 83 1008.6
20260506192203 19 62 11.3 17.7 0.00 0.00 0.00 83 1008.8
20260506192103 19 68 11.3 17.7 0.00 0.00 0.00 83 1008.7
20260506192003 19 67 11.3 17.7 0.00 0.00 0.00 83 1008.5
20260506191903 19 68 12.9 17.7 0.00 0.00 0.00 83 1008.4
20260506191803 19 70 11.3 17.7 0.00 0.00 0.00 83 1008.5
20260506191703 19 73 11.3 17.7 0.00 0.00 0.00 83 1008.3
20260506191603 19 72 11.3 17.7 0.00 0.00 0.00 83 1008.4
20260506191503 19 67 12.9 17.7 0.00 0.00 0.00 83 1008.5
20260506191403 19 65 12.9 17.7 0.00 0.00 0.00 83 1008.4
20260506191303 19 58 12.9 20.9 0.00 0.00 0.00 83 1008.6
20260506191203 19 58 14.5 20.9 0.00 0.00 0.00 83 1008.2
20260506191103 19 51 12.9 20.9 0.00 0.00 0.00 83 1008.4
20260506190903 19 53 12.9 20.9 0.00 0.00 0.00 83 1008.1
20260506190803 19 51 12.9 20.9 0.00 0.00 0.00 83 1008.3
20260506190703 19 51 12.9 20.9 0.00 0.00 0.00 83 1008.1
20260506190603 19 50 12.9 20.9 0.00 0.00 0.00 83 1008.3
20260506190503 19 54 12.9 20.9 0.00 0.00 0.00 83 1008.2
20260506190403 19 52 12.9 20.9 0.00 0.00 0.00 83 1008.2
20260506190303 19 54 11.3 20.9 0.00 0.00 0.00 83 1008.1
20260506190203 19 52 11.3 14.5 0.00 0.00 0.00 83 1008.3
20260506190004 19 63 11.3 14.5 0.00 0.00 0.00 83 1008.0
20260506185903 19 67 11.3 14.5 0.00 0.00 0.00 83 1008.3
20260506185803 19 62 11.3 20.9 0.00 0.00 0.00 83 1008.3
20260506185703 19 62 12.9 24.1 0.00 0.00 0.00 83 1008.4
20260506185603 19 61 12.9 24.1 0.00 0.00 0.00 83 1008.1
20260506185503 19 60 12.9 24.1 0.00 0.00 0.00 83 1008.3
20260506185403 19 63 12.9 24.1 0.00 0.00 0.00 83 1008.3
20260506185306 19 64 14.5 24.1 0.00 0.00 0.00 83 1008.4
20260506185203 19 65 14.5 24.1 0.00 0.00 0.00 83 1008.2
20260506185103 19 63 14.5 24.1 0.00 0.00 0.00 83 1008.0
20260506185003 19 63 14.5 24.1 0.00 0.00 0.00 83 1008.1
20260506184903 19 61 14.5 24.1 0.00 0.00 0.00 83 1008.0
20260506184803 19 67 14.5 24.1 0.00 0.00 0.00 83 1008.1
20260506184703 19 68 12.9 17.7 0.00 0.00 0.00 83 1008.0
20260506184603 19 68 12.9 17.7 0.00 0.00 0.00 83 1008.0
20260506184503 19 69 12.9 17.7 0.00 0.00 0.00 83 1008.2
20260506184403 19 66 12.9 17.7 0.00 0.00 0.00 83 1008.1
20260506184303 19 71 12.9 14.5 0.00 0.00 0.00 83 1008.1
20260506184203 19 75 12.9 17.7 0.00 0.00 0.00 83 1008.2
20260506184103 19 73 12.9 17.7 0.00 0.00 0.00 83 1008.2
20260506184003 19 70 12.9 17.7 0.00 0.00 0.00 83 1008.3
20260506183903 19 69 14.5 17.7 0.00 0.00 0.00 83 1008.2
20260506183803 19 68 14.5 17.7 0.00 0.00 0.00 83 1008.3
20260506183704 19 67 12.9 17.7 0.00 0.00 0.00 83 1008.3
20260506183604 19 69 14.5 17.7 0.00 0.00 0.00 83 1008.3
20260506183503 19 71 14.5 17.7 0.00 0.00 0.00 83 1008.1
20260506183403 19 74 14.5 17.7 0.00 0.00 0.00 83 1008.1
20260506183303 19 77 16.1 17.7 0.00 0.00 0.00 83 1008.1
20260506183203 19 73 14.5 17.7 0.00 0.00 0.00 83 1008.0
20260506183103 19 75 16.1 20.9 0.00 0.00 0.00 83 1008.1
20260506183004 19 79 16.1 20.9 0.00 0.00 0.00 83 1007.9
20260506182903 19 77 14.5 20.9 0.00 0.00 0.00 83 1008.1
20260506182803 19 74 16.1 20.9 0.00 0.00 0.00 83 1008.0
20260506182703 19 68 16.1 20.9 0.00 0.00 0.00 83 1008.1
20260506182603 19 70 16.1 22.5 0.00 0.00 0.00 83 1007.8
20260506182503 19 68 16.1 22.5 0.00 0.00 0.00 83 1007.7
20260506182403 19 61 16.1 22.5 0.00 0.00 0.00 83 1008.0
20260506182306 19 57 17.7 22.5 0.00 0.00 0.00 83 1007.7
20260506182203 19 56 16.1 22.5 0.00 0.00 0.00 83 1007.6
20260506182103 19 59 16.1 22.5 0.00 0.00 0.00 83 1007.7
20260506182003 20 58 16.1 22.5 0.00 0.00 0.00 83 1007.8
20260506181903 20 59 17.7 22.5 0.00 0.00 0.00 83 1007.7
20260506181803 20 61 16.1 22.5 0.00 0.00 0.00 83 1007.8
20260506181703 20 64 16.1 22.5 0.00 0.00 0.00 83 1007.7
20260506181603 20 61 14.5 20.9 0.00 0.00 0.00 83 1007.7
20260506181503 20 62 14.5 20.9 0.00 0.00 0.00 83 1007.7
20260506181403 20 67 12.9 20.9 0.00 0.00 0.00 83 1007.8
20260506181303 20 69 11.3 20.9 0.00 0.00 0.00 83 1007.6
20260506181203 20 69 11.3 17.7 0.00 0.00 0.00 82 1007.6
20260506181103 20 64 9.7 14.5 0.00 0.00 0.00 82 1007.7
20260506181003 20 60 9.7 14.5 0.00 0.00 0.00 82 1007.8
20260506180903 20 59 9.7 14.5 0.00 0.00 0.00 82 1007.8
20260506180803 19 54 9.7 14.5 0.00 0.00 0.00 82 1007.6
20260506180703 19 54 9.7 14.5 0.00 0.00 0.00 82 1007.7
20260506180603 19 59 11.3 17.7 0.00 0.00 0.00 82 1007.7
20260506180503 19 61 11.3 17.7 0.00 0.00 0.00 82 1007.6
20260506180403 19 63 12.9 20.9 0.00 0.00 0.00 82 1007.3
20260506180303 19 62 12.9 20.9 0.00 0.00 0.00 82 1007.4
20260506180203 19 65 14.5 20.9 0.00 0.00 0.00 82 1007.2
20260506180103 19 66 14.5 22.5 0.00 0.00 0.00 82 1007.1
20260506180004 19 76 16.1 22.5 0.00 0.00 0.00 82 1007.1
20260506175903 19 80 16.1 22.5 0.00 0.00 0.00 82 1007.1
20260506175803 19 83 16.1 22.5 0.00 0.00 0.00 82 1007.0
20260506175703 19 84 16.1 22.5 0.00 0.00 0.00 82 1007.0
20260506175603 19 81 14.5 22.5 0.00 0.00 0.00 82 1007.2
20260506175503 19 82 14.5 22.5 0.00 0.00 0.00 82 1007.1
20260506175403 19 82 12.9 22.5 0.00 0.00 0.00 82 1007.1
20260506175306 19 84 11.3 22.5 0.00 0.00 0.00 82 1007.2
20260506175203 19 87 9.7 22.5 0.00 0.00 0.00 82 1007.2
20260506175103 19 90 8.0 17.7 0.00 0.00 0.00 81 1007.3
20260506175003 19 77 8.0 17.7 0.00 0.00 0.00 81 1007.3
20260506174903 19 72 8.0 14.5 0.00 0.00 0.00 81 1007.1
20260506174803 18 73 8.0 11.3 0.00 0.00 0.00 82 1007.5
20260506174703 18 81 8.0 12.9 0.00 0.00 0.00 82 1007.6
20260506174603 18 90 8.0 14.5 0.00 0.00 0.00 82 1007.5
20260506174503 18 96 9.7 14.5 0.00 0.00 0.00 82 1007.8
20260506174403 18 99 11.3 14.5 0.00 0.00 0.00 82 1008.0
20260506174303 18 105 11.3 14.5 0.00 0.00 0.00 82 1008.1
20260506174203 18 103 11.3 14.5 0.00 0.00 0.00 82 1007.8
20260506174103 18 104 11.3 14.5 0.00 0.00 0.00 83 1008.1
20260506174003 18 106 12.9 14.5 0.00 0.00 0.00 83 1008.1
20260506173903 18 107 12.9 14.5 0.00 0.00 0.00 83 1008.1
20260506173803 18 109 12.9 14.5 0.00 0.00 0.00 83 1008.2
20260506173703 18 111 12.9 14.5 0.00 0.00 0.00 83 1008.4
20260506173603 18 111 12.9 14.5 0.00 0.00 0.00 84 1008.1
20260506173503 18 109 12.9 17.7 0.00 0.00 0.00 84 1008.4
20260506173403 18 109 14.5 17.7 0.00 0.00 0.00 84 1008.4
20260506173203 18 112 14.5 17.7 0.00 0.00 0.00 84 1008.5
20260506173103 18 113 14.5 17.7 0.00 0.00 0.00 84 1008.8
20260506172903 18 115 14.5 17.7 0.00 0.00 0.00 84 1008.6
20260506172803 18 116 14.5 17.7 0.00 0.00 0.00 84 1008.7
20260506172703 18 115 14.5 17.7 0.00 0.00 0.00 84 1008.7
20260506172603 18 119 16.1 17.7 0.00 0.00 0.00 84 1008.5
20260506172503 18 118 14.5 17.7 0.00 0.00 0.00 84 1008.9
20260506172403 19 119 14.5 17.7 0.00 0.00 0.00 84 1009.0
20260506172306 19 117 14.5 17.7 0.00 0.00 0.00 84 1008.9
20260506172203 19 117 14.5 17.7 0.00 0.00 0.00 84 1008.9
20260506172103 19 114 12.9 17.7 0.00 0.00 0.00 84 1009.0
20260506172003 19 115 12.9 17.7 0.00 0.00 0.00 83 1008.7
20260506171903 19 113 12.9 17.7 0.00 0.00 0.00 83 1009.0
20260506171803 19 113 12.9 17.7 0.00 0.00 0.00 83 1008.8
20260506171703 19 115 12.9 17.7 0.00 0.00 0.00 83 1009.0
20260506171603 19 111 12.9 14.5 0.00 0.00 0.00 83 1009.0
20260506171503 19 111 11.3 14.5 0.00 0.00 0.00 83 1008.9
20260506171403 19 111 11.3 14.5 0.00 0.00 0.00 83 1009.0
20260506171303 19 111 11.3 14.5 0.00 0.00 0.00 83 1008.9
20260506171203 19 113 11.3 14.5 0.00 0.00 0.00 82 1009.0
20260506171103 19 117 11.3 14.5 0.00 0.00 0.00 82 1009.1
20260506171003 19 118 11.3 14.5 0.00 0.00 0.00 82 1009.0
20260506170903 19 118 9.7 14.5 0.00 0.00 0.00 82 1009.2
20260506170803 19 119 9.7 14.5 0.00 0.00 0.00 82 1009.1
20260506170703 19 121 9.7 12.9 0.00 0.00 0.00 82 1009.2
20260506170603 19 119 9.7 11.3 0.00 0.00 0.00 82 1009.2
20260506170503 19 128 8.0 11.3 0.00 0.00 0.00 82 1009.0
20260506170403 19 129 8.0 11.3 0.00 0.00 0.00 82 1009.2
20260506170303 19 133 8.0 11.3 0.00 0.00 0.00 82 1009.0
20260506170203 19 134 8.0 11.3 0.00 0.00 0.00 82 1009.2
20260506170103 19 133 9.7 12.9 0.00 0.00 0.00 82 1009.4
20260506170004 20 137 9.7 12.9 0.00 0.00 0.00 82 1009.1
20260506165903 20 139 9.7 12.9 0.00 0.00 0.00 82 1009.4
20260506165803 20 146 9.7 17.7 0.00 0.00 0.00 81 1009.5
20260506165703 20 149 9.7 17.7 0.00 0.00 0.00 81 1009.5
20260506165603 20 148 9.7 17.7 0.00 0.00 0.00 81 1009.2
20260506165503 20 142 11.3 17.7 0.00 0.00 0.00 81 1009.6
20260506165403 20 140 11.3 17.7 0.00 0.00 0.00 81 1009.7
20260506165305 20 134 11.3 17.7 0.00 0.00 0.00 81 1009.5
20260506165203 20 133 11.3 17.7 0.00 0.00 0.00 81 1009.3
20260506165103 20 140 11.3 17.7 0.00 0.00 0.00 81 1009.5
20260506165003 20 145 12.9 17.7 0.00 0.00 0.00 80 1009.7
20260506164903 20 143 12.9 17.7 0.00 0.00 0.00 80 1009.6
20260506164804 20 141 12.9 17.7 0.00 0.00 0.00 80 1009.4
20260506164703 20 139 11.3 17.7 0.00 0.00 0.00 80 1009.6
20260506164603 20 142 11.3 17.7 0.00 0.00 0.00 80 1009.6
20260506164503 20 152 12.9 17.7 0.00 0.00 0.00 80 1009.7
20260506164403 20 159 12.9 17.7 0.00 0.00 0.00 80 1009.6
20260506164303 20 165 12.9 17.7 0.00 0.00 0.00 80 1009.5
20260506164203 20 167 11.3 17.7 0.00 0.00 0.00 80 1009.5
20260506164103 20 163 11.3 17.7 0.00 0.00 0.00 79 1009.4
20260506164003 20 165 11.3 17.7 0.00 0.00 0.00 79 1009.7
20260506163903 21 166 11.3 17.7 0.00 0.00 0.00 78 1009.6
20260506163803 21 165 9.7 17.7 0.00 0.00 0.00 77 1009.5
20260506163703 21 162 9.7 17.7 0.00 0.00 0.00 76 1009.5
20260506163603 21 157 11.3 17.7 0.00 0.00 0.00 75 1009.3
20260506163503 21 146 9.7 17.7 0.00 0.00 0.00 75 1009.3
20260506163403 21 141 9.7 12.9 0.00 0.00 0.00 74 1009.5
20260506163303 21 147 9.7 12.9 0.00 0.00 0.00 73 1009.4
20260506163203 21 158 9.7 12.9 0.00 0.00 0.00 73 1009.2
20260506163103 21 159 11.3 12.9 0.00 0.00 0.00 72 1009.4
20260506163003 21 153 9.7 12.9 0.00 0.00 0.00 72 1009.2
20260506162903 21 145 9.7 17.7 0.00 0.00 0.00 72 1009.3
20260506162803 21 141 11.3 17.7 0.00 0.00 0.00 72 1009.4
20260506162703 21 141 11.3 17.7 0.00 0.00 0.00 72 1009.3
20260506162603 21 141 12.9 17.7 0.00 0.00 0.00 71 1009.1
20260506162503 21 138 12.9 17.7 0.00 0.00 0.00 71 1009.1
20260506162403 21 131 12.9 17.7 0.00 0.00 0.00 71 1008.9
20260506162306 21 124 12.9 17.7 0.00 0.00 0.00 71 1009.0
20260506162203 21 118 12.9 17.7 0.00 0.00 0.00 71 1009.1
20260506162103 21 117 11.3 17.7 0.00 0.00 0.00 71 1008.8
20260506162003 21 117 11.3 17.7 0.00 0.00 0.00 71 1008.8
20260506161903 21 120 11.3 17.7 0.00 0.00 0.00 71 1008.9
20260506161803 21 122 11.3 17.7 0.00 0.00 0.00 71 1008.9
20260506161703 21 113 11.3 17.7 0.00 0.00 0.00 71 1008.8
20260506161603 21 109 11.3 14.5 0.00 0.00 0.00 70 1008.5
20260506161503 21 111 11.3 14.5 0.00 0.00 0.00 70 1008.7
20260506161403 21 112 11.3 14.5 0.00 0.00 0.00 70 1008.8
20260506161303 21 112 11.3 14.5 0.00 0.00 0.00 70 1008.5
20260506161203 21 111 12.9 17.7 0.00 0.00 0.00 69 1008.6
20260506161103 21 110 12.9 17.7 0.00 0.00 0.00 69 1008.6
20260506161003 21 110 12.9 17.7 0.00 0.00 0.00 68 1008.5
20260506160903 21 106 14.5 17.7 0.00 0.00 0.00 68 1008.4
20260506160803 21 104 14.5 17.7 0.00 0.00 0.00 68 1008.4
20260506160703 21 110 12.9 17.7 0.00 0.00 0.00 68 1008.5
20260506160603 21 111 12.9 17.7 0.00 0.00 0.00 68 1008.5
20260506160503 21 113 14.5 17.7 0.00 0.00 0.00 68 1008.6
20260506160403 21 114 14.5 17.7 0.00 0.00 0.00 68 1008.5
20260506160303 21 110 14.5 17.7 0.00 0.00 0.00 68 1008.6
20260506160203 21 111 14.5 17.7 0.00 0.00 0.00 68 1008.7
20260506160003 21 110 14.5 14.5 0.00 0.00 0.00 68 1009.0
20260506155903 21 114 14.5 14.5 0.00 0.00 0.00 69 1009.1
20260506155803 21 116 14.5 17.7 0.00 0.00 0.00 68 1009.2
20260506155703 21 119 14.5 17.7 0.00 0.00 0.00 68 1009.0
20260506155603 21 122 14.5 17.7 0.00 0.00 0.00 67 1009.0
20260506155503 21 124 14.5 17.7 0.00 0.00 0.00 67 1008.9
20260506155403 21 124 14.5 17.7 0.00 0.00 0.00 67 1009.2
20260506155306 21 128 14.5 17.7 0.00 0.00 0.00 68 1008.9
20260506155203 21 129 12.9 17.7 0.00 0.00 0.00 68 1009.0
20260506155103 21 132 12.9 17.7 0.00 0.00 0.00 68 1008.9
20260506155003 21 130 12.9 17.7 0.00 0.00 0.00 68 1009.2
20260506154903 21 127 12.9 17.7 0.00 0.00 0.00 68 1009.1
20260506154803 21 122 12.9 17.7 0.00 0.00 0.00 69 1009.2
20260506154703 21 119 12.9 17.7 0.00 0.00 0.00 68 1009.0
20260506154603 21 118 12.9 17.7 0.00 0.00 0.00 69 1009.2
20260506154503 21 117 14.5 17.7 0.00 0.00 0.00 71 1009.1
20260506154403 21 121 14.5 17.7 0.00 0.00 0.00 71 1009.2
20260506154303 21 120 14.5 17.7 0.00 0.00 0.00 71 1009.1
20260506154203 21 118 14.5 17.7 0.00 0.00 0.00 70 1009.1
20260506154103 21 117 14.5 17.7 0.00 0.00 0.00 70 1009.1
20260506154003 21 115 14.5 17.7 0.00 0.00 0.00 70 1008.9
20260506153903 21 117 14.5 17.7 0.00 0.00 0.00 71 1008.8
20260506153803 21 118 14.5 17.7 0.00 0.00 0.00 71 1009.1
20260506153703 21 118 14.5 17.7 0.00 0.00 0.00 71 1008.7
20260506153603 21 116 14.5 17.7 0.00 0.00 0.00 72 1009.0
20260506153503 21 114 14.5 17.7 0.00 0.00 0.00 72 1008.8
20260506153403 21 109 14.5 17.7 0.00 0.00 0.00 72 1008.7
20260506153303 21 105 14.5 17.7 0.00 0.00 0.00 72 1008.6
20260506153203 21 106 14.5 17.7 0.00 0.00 0.00 72 1008.6
20260506153103 21 103 14.5 17.7 0.00 0.00 0.00 72 1008.7
20260506153003 21 105 14.5 17.7 0.00 0.00 0.00 72 1008.6
20260506152903 21 104 14.5 17.7 0.00 0.00 0.00 72 1008.4
20260506152803 21 103 14.5 17.7 0.00 0.00 0.00 72 1008.8
20260506152703 21 103 16.1 17.7 0.00 0.00 0.00 72 1008.6
20260506152603 21 102 16.1 17.7 0.00 0.00 0.00 73 1008.6
20260506152503 21 102 14.5 17.7 0.00 0.00 0.00 73 1008.6
20260506152403 21 102 14.5 17.7 0.00 0.00 0.00 75 1008.9
20260506152305 21 106 14.5 17.7 0.00 0.00 0.00 75 1008.6
20260506152203 21 108 14.5 17.7 0.00 0.00 0.00 78 1008.7
20260506152103 21 110 14.5 17.7 0.00 0.00 0.00 78 1008.8
20260506152003 21 110 16.1 17.7 0.00 0.00 0.00 78 1008.9
20260506151903 21 111 16.1 17.7 0.00 0.00 0.00 78 1009.0
20260506151803 21 110 16.1 17.7 0.00 0.00 0.00 78 1008.9
20260506151703 21 110 16.1 17.7 0.00 0.00 0.00 78 1008.9
20260506151603 21 114 16.1 17.7 0.00 0.00 0.00 77 1009.3
20260506151503 21 113 14.5 17.7 0.00 0.00 0.00 77 1009.2
20260506151403 21 114 14.5 17.7 0.00 0.00 0.00 76 1009.2
20260506151303 21 116 14.5 17.7 0.00 0.00 0.00 76 1009.4
20260506151203 21 113 12.9 17.7 0.00 0.00 0.00 75 1009.4
20260506151103 21 112 12.9 17.7 0.00 0.00 0.00 75 1009.3
20260506151003 21 116 12.9 17.7 0.00 0.00 0.00 75 1009.5
20260506150903 21 121 11.3 17.7 0.00 0.00 0.00 75 1009.6
20260506150803 21 126 11.3 17.7 0.00 0.00 0.00 75 1009.7
20260506150703 21 130 11.3 17.7 0.00 0.00 0.00 76 1009.9
20260506150603 21 128 11.3 14.5 0.00 0.00 0.00 76 1009.6
20260506150503 21 127 11.3 17.7 0.00 0.00 0.00 76 1009.8
20260506150403 21 131 11.3 17.7 0.00 0.00 0.00 75 1009.9
20260506150305 22 134 12.9 17.7 0.00 0.00 0.00 75 1009.8
20260506150203 22 136 12.9 17.7 0.00 0.00 0.00 75 1010.0
20260506150004 21 136 14.5 17.7 0.00 0.00 0.00 75 1009.8
20260506145903 21 136 14.5 17.7 0.00 0.00 0.00 74 1010.0
20260506145804 22 137 14.5 17.7 0.00 0.00 0.00 72 1009.9
20260506145703 22 133 14.5 17.7 0.00 0.00 0.00 71 1009.9
20260506145603 22 131 14.5 17.7 0.00 0.00 0.00 70 1010.0
20260506145503 22 133 14.5 17.7 0.00 0.00 0.00 68 1010.1
20260506145403 22 135 14.5 17.7 0.00 0.00 0.00 67 1010.1
20260506145305 22 139 14.5 17.7 0.00 0.00 0.00 66 1010.2
20260506145203 22 140 14.5 17.7 0.00 0.00 0.00 66 1010.1
20260506145103 22 141 14.5 17.7 0.00 0.00 0.00 65 1010.0
20260506145003 22 139 14.5 17.7 0.00 0.00 0.00 65 1010.0
20260506144903 22 140 14.5 17.7 0.00 0.00 0.00 65 1010.0
20260506144803 22 138 12.9 17.7 0.00 0.00 0.00 65 1010.1
20260506144703 22 141 12.9 17.7 0.00 0.00 0.00 64 1010.0
20260506144603 22 143 12.9 17.7 0.00 0.00 0.00 64 1010.1
20260506144503 22 149 11.3 17.7 0.00 0.00 0.00 63 1010.4
20260506144403 22 147 11.3 17.7 0.00 0.00 0.00 63 1010.2
20260506144303 22 136 11.3 17.7 0.00 0.00 0.00 62 1010.1
20260506144203 22 128 11.3 17.7 0.00 0.00 0.00 61 1010.3
20260506144103 23 122 11.3 14.5 0.00 0.00 0.00 61 1010.1
20260506144003 23 123 11.3 14.5 0.00 0.00 0.00 61 1010.1
20260506143903 22 118 11.3 17.7 0.00 0.00 0.00 60 1010.0
20260506143803 23 118 12.9 20.9 0.00 0.00 0.00 61 1010.3
20260506143703 22 115 12.9 20.9 0.00 0.00 0.00 61 1010.1
20260506143603 22 113 12.9 20.9 0.00 0.00 0.00 62 1010.3
20260506143503 22 109 14.5 20.9 0.00 0.00 0.00 62 1010.1
20260506143403 22 109 14.5 20.9 0.00 0.00 0.00 62 1010.3
20260506143303 22 105 16.1 20.9 0.00 0.00 0.00 62 1010.1
20260506143203 22 105 16.1 20.9 0.00 0.00 0.00 61 1010.0
20260506143103 22 105 16.1 20.9 0.00 0.00 0.00 61 1010.1
20260506143003 22 107 16.1 20.9 0.00 0.00 0.00 60 1010.1
20260506142903 22 111 17.7 20.9 0.00 0.00 0.00 60 1010.0